Wetterdaten: Sonntag, 27.09.2020
Datum Zeit Temp. Aussen Temp. o. S. Temp +5cm Feuchte Auss Luftdruck Regen Sonnenschein Regendauer Solar Windben Empfang
27.09.2020 00:00 10,5 C 9,4 C 9,4 C 98 % 997,5 hPa 0,2 l/m 0 min 2 min 0 W/m 0,0 km/h (0 Bft) 100,00 %
27.09.2020 00:02 10,5 C 9,4 C 9,4 C 98 % 997,4 hPa 0,0 l/m 0 min 2 min 0 W/m 0,0 km/h (0 Bft) 97,30 %
27.09.2020 00:04 10,6 C 10,0 C 9,4 C 98 % 997,3 hPa 0,0 l/m 0 min 2 min 0 W/m 0,0 km/h (0 Bft) 100,00 %
27.09.2020 00:08 10,6 C 10,0 C 9,4 C 98 % 997,2 hPa 0,6 l/m 0 min 4 min 0 W/m 0,0 km/h (0 Bft) 100,00 %
27.09.2020 00:10 10,6 C 10,0 C 9,4 C 98 % 997,2 hPa 0,0 l/m 0 min 2 min 0 W/m 0,0 km/h (0 Bft) 100,00 %
27.09.2020 00:12 10,6 C 10,0 C 9,4 C 98 % 997,2 hPa 0,2 l/m 0 min 2 min 0 W/m 9,7 km/h (2 Bft) 100,00 %
27.09.2020 00:14 10,7 C 10,0 C 9,4 C 98 % 997,1 hPa 0,2 l/m 0 min 2 min 0 W/m 0,0 km/h (0 Bft) 100,00 %
27.09.2020 00:16 10,7 C 10,0 C 10,0 C 98 % 997,1 hPa 0,0 l/m 0 min 2 min 0 W/m 3,2 km/h (1 Bft) 100,00 %
27.09.2020 00:18 10,7 C 10,0 C 10,0 C 98 % 997,2 hPa 0,2 l/m 0 min 2 min 0 W/m 3,2 km/h (1 Bft) 100,00 %
27.09.2020 00:20 10,8 C 10,6 C 10,0 C 98 % 997,2 hPa 0,0 l/m 0 min 2 min 0 W/m 19,3 km/h (3 Bft) 97,87 %
27.09.2020 00:22 10,8 C 10,6 C 10,0 C 98 % 997,2 hPa 0,2 l/m 0 min 2 min 0 W/m 19,3 km/h (3 Bft) 100,00 %
27.09.2020 00:24 10,9 C 10,6 C 10,0 C 98 % 997,1 hPa 0,0 l/m 0 min 2 min 0 W/m 9,7 km/h (2 Bft) 100,00 %
27.09.2020 00:26 11,1 C 10,6 C 10,0 C 98 % 997,1 hPa 0,2 l/m 0 min 2 min 0 W/m 3,2 km/h (1 Bft) 100,00 %
27.09.2020 00:28 11,1 C 10,6 C 10,0 C 98 % 997,1 hPa 0,0 l/m 0 min 2 min 0 W/m 6,4 km/h (2 Bft) 100,00 %
27.09.2020 00:30 11,2 C 10,6 C 10,0 C 98 % 997,0 hPa 0,2 l/m 0 min 2 min 0 W/m 6,4 km/h (2 Bft) 100,00 %
27.09.2020 00:32 11,2 C 10,6 C 10,0 C 98 % 996,9 hPa 0,0 l/m 0 min 2 min 0 W/m 0,0 km/h (0 Bft) 100,00 %
27.09.2020 00:34 11,3 C 10,6 C 10,0 C 98 % 996,8 hPa 0,2 l/m 0 min 2 min 0 W/m 6,4 km/h (2 Bft) 100,00 %
27.09.2020 00:36 11,3 C 10,6 C 10,0 C 99 % 996,8 hPa 0,2 l/m 0 min 2 min 0 W/m 6,4 km/h (2 Bft) 100,00 %
27.09.2020 00:38 11,4 C 10,6 C 10,0 C 99 % 996,6 hPa 0,2 l/m 0 min 2 min 0 W/m 19,3 km/h (3 Bft) 100,00 %
27.09.2020 00:40 11,4 C 10,6 C 10,0 C 99 % 996,6 hPa 0,0 l/m 0 min 2 min 0 W/m 0,0 km/h (0 Bft) 97,87 %
27.09.2020 00:42 11,4 C 10,6 C 10,6 C 99 % 996,5 hPa 0,2 l/m 0 min 2 min 0 W/m 3,2 km/h (1 Bft) 97,87 %
27.09.2020 00:44 11,5 C 10,6 C 10,6 C 99 % 996,5 hPa 0,0 l/m 0 min 2 min 0 W/m 16,1 km/h (3 Bft) 97,87 %
27.09.2020 00:46 11,5 C 10,6 C 10,6 C 99 % 996,4 hPa 0,0 l/m 0 min 2 min 0 W/m 19,3 km/h (3 Bft) 100,00 %
27.09.2020 00:48 11,5 C 10,6 C 10,6 C 99 % 996,4 hPa 0,0 l/m 0 min 2 min 0 W/m 3,2 km/h (1 Bft) 100,00 %
27.09.2020 00:50 11,6 C 10,6 C 10,6 C 99 % 996,3 hPa 0,2 l/m 0 min 2 min 0 W/m 6,4 km/h (2 Bft) 100,00 %
27.09.2020 00:52 11,6 C 10,6 C 10,6 C 99 % 996,3 hPa 0,0 l/m 0 min 2 min 0 W/m 9,7 km/h (2 Bft) 100,00 %
27.09.2020 00:54 11,6 C 10,6 C 10,6 C 99 % 996,3 hPa 0,0 l/m 0 min 2 min 0 W/m 12,9 km/h (3 Bft) 100,00 %
27.09.2020 00:56 11,6 C 10,6 C 10,6 C 99 % 996,1 hPa 0,0 l/m 0 min 2 min 0 W/m 9,7 km/h (2 Bft) 100,00 %
27.09.2020 00:58 11,6 C 10,6 C 10,6 C 99 % 996,1 hPa 0,2 l/m 0 min 2 min 0 W/m 3,2 km/h (1 Bft) 95,74 %
27.09.2020 01:00 11,6 C 10,6 C 10,6 C 99 % 996,0 hPa 0,0 l/m 0 min 2 min 0 W/m 19,3 km/h (3 Bft) 97,83 %
27.09.2020 01:02 11,6 C 10,6 C 10,0 C 99 % 996,0 hPa 0,0 l/m 0 min 2 min 0 W/m 9,7 km/h (2 Bft) 97,87 %
27.09.2020 01:04 11,6 C 10,6 C 10,0 C 99 % 995,8 hPa 0,0 l/m 0 min 2 min 0 W/m 19,3 km/h (3 Bft) 97,87 %
27.09.2020 01:06 11,6 C 10,6 C 10,0 C 99 % 995,7 hPa 0,0 l/m 0 min 2 min 0 W/m 9,7 km/h (2 Bft) 97,87 %
27.09.2020 01:08 11,6 C 10,6 C 10,0 C 99 % 995,7 hPa 0,0 l/m 0 min 2 min 0 W/m 3,2 km/h (1 Bft) 97,87 %
27.09.2020 01:10 11,6 C 10,6 C 10,0 C 99 % 995,7 hPa 0,2 l/m 0 min 2 min 0 W/m 3,2 km/h (1 Bft) 97,83 %
27.09.2020 01:12 11,6 C 10,6 C 10,0 C 99 % 995,7 hPa 0,0 l/m 0 min 2 min 0 W/m 12,9 km/h (3 Bft) 97,87 %
27.09.2020 01:14 11,5 C 10,6 C 10,0 C 99 % 995,6 hPa 0,0 l/m 0 min 2 min 0 W/m 6,4 km/h (2 Bft) 97,87 %
27.09.2020 01:16 11,5 C 10,6 C 10,0 C 99 % 995,6 hPa 0,0 l/m 0 min 2 min 0 W/m 12,9 km/h (3 Bft) 93,62 %
27.09.2020 01:18 11,5 C 10,6 C 10,0 C 99 % 995,5 hPa 0,2 l/m 0 min 2 min 0 W/m 9,7 km/h (2 Bft) 97,87 %
27.09.2020 01:20 11,5 C 10,6 C 10,0 C 99 % 995,4 hPa 0,0 l/m 0 min 2 min 0 W/m 6,4 km/h (2 Bft) 97,87 %
27.09.2020 01:22 11,5 C 10,6 C 10,0 C 99 % 995,4 hPa 0,0 l/m 0 min 2 min 0 W/m 19,3 km/h (3 Bft) 95,65 %
27.09.2020 01:24 11,5 C 10,6 C 10,0 C 99 % 995,3 hPa 0,4 l/m 0 min 2 min 0 W/m 6,4 km/h (2 Bft) 93,62 %
27.09.2020 01:26 11,4 C 10,6 C 10,0 C 99 % 995,2 hPa 0,2 l/m 0 min 2 min 0 W/m 16,1 km/h (3 Bft) 97,87 %
27.09.2020 01:28 11,4 C 10,6 C 10,0 C 99 % 995,0 hPa 0,0 l/m 0 min 2 min 0 W/m 12,9 km/h (3 Bft) 97,87 %
27.09.2020 01:30 11,4 C 10,6 C 10,0 C 99 % 995,0 hPa 0,2 l/m 0 min 2 min 0 W/m 12,9 km/h (3 Bft) 97,87 %
27.09.2020 01:32 11,4 C 10,6 C 10,0 C 99 % 994,9 hPa 0,2 l/m 0 min 2 min 0 W/m 3,2 km/h (1 Bft) 93,62 %
27.09.2020 01:34 11,4 C 10,6 C 10,0 C 99 % 994,8 hPa 0,2 l/m 0 min 2 min 0 W/m 9,7 km/h (2 Bft) 95,65 %
27.09.2020 01:36 11,4 C 10,6 C 10,0 C 99 % 994,7 hPa 0,0 l/m 0 min 2 min 0 W/m 6,4 km/h (2 Bft) 95,74 %
27.09.2020 01:38 11,4 C 10,6 C 10,0 C 99 % 994,5 hPa 0,0 l/m 0 min 2 min 0 W/m 9,7 km/h (2 Bft) 89,36 %
27.09.2020 01:40 11,4 C 10,6 C 10,0 C 99 % 994,5 hPa 0,2 l/m 0 min 2 min 0 W/m 9,7 km/h (2 Bft) 93,62 %
27.09.2020 01:42 11,4 C 10,6 C 10,0 C 99 % 994,5 hPa 0,2 l/m 0 min 2 min 0 W/m 6,4 km/h (2 Bft) 95,74 %
27.09.2020 01:44 11,4 C 10,6 C 10,0 C 99 % 994,5 hPa 0,2 l/m 0 min 2 min 0 W/m 0,0 km/h (0 Bft) 93,48 %
27.09.2020 01:46 11,4 C 10,6 C 10,0 C 99 % 994,4 hPa 0,0 l/m 0 min 0 min 0 W/m 12,9 km/h (3 Bft) 93,62 %
27.09.2020 01:48 11,4 C 10,6 C 10,0 C 99 % 994,5 hPa 0,0 l/m 0 min 0 min 0 W/m 9,7 km/h (2 Bft) 95,74 %
27.09.2020 01:50 11,4 C 10,6 C 10,0 C 99 % 994,4 hPa 0,0 l/m 0 min 0 min 0 W/m 9,7 km/h (2 Bft) 95,74 %
27.09.2020 01:52 11,4 C 10,6 C 10,0 C 99 % 994,3 hPa 0,0 l/m 0 min 0 min 0 W/m 3,2 km/h (1 Bft) 93,62 %
27.09.2020 01:54 11,4 C 10,6 C 10,0 C 99 % 994,5 hPa 0,0 l/m 0 min 2 min 0 W/m 9,7 km/h (2 Bft) 95,74 %
27.09.2020 01:56 11,4 C 10,6 C 10,0 C 99 % 994,1 hPa 0,2 l/m 0 min 2 min 0 W/m 12,9 km/h (3 Bft) 95,65 %
27.09.2020 01:58 11,3 C 10,6 C 10,0 C 99 % 994,0 hPa 0,0 l/m 0 min 0 min 0 W/m 9,7 km/h (2 Bft) 93,62 %
27.09.2020 02:00 11,3 C 10,6 C 10,0 C 99 % 994,0 hPa 0,0 l/m 0 min 0 min 0 W/m 6,4 km/h (2 Bft) 95,74 %
27.09.2020 02:02 11,3 C 10,6 C 10,0 C 99 % 993,9 hPa 0,0 l/m 0 min 2 min 0 W/m 9,7 km/h (2 Bft) 95,74 %
27.09.2020 02:04 11,3 C 10,6 C 10,0 C 99 % 994,0 hPa 0,0 l/m 0 min 2 min 0 W/m 0,0 km/h (0 Bft) 93,62 %
27.09.2020 02:06 11,3 C 10,6 C 10,0 C 99 % 994,0 hPa 0,2 l/m 0 min 2 min 0 W/m 9,7 km/h (2 Bft) 95,74 %
27.09.2020 02:08 11,3 C 10,6 C 10,0 C 99 % 994,0 hPa 0,0 l/m 0 min 2 min 0 W/m 6,4 km/h (2 Bft) 95,65 %
27.09.2020 02:10 11,3 C 10,6 C 10,0 C 99 % 994,0 hPa 0,0 l/m 0 min 0 min 0 W/m 6,4 km/h (2 Bft) 95,74 %
27.09.2020 02:12 11,3 C 10,6 C 10,0 C 99 % 994,0 hPa 0,0 l/m 0 min 2 min 0 W/m 6,4 km/h (2 Bft) 95,74 %
27.09.2020 02:14 11,3 C 10,6 C 10,0 C 99 % 994,0 hPa 0,2 l/m 0 min 2 min 0 W/m 3,2 km/h (1 Bft) 95,74 %
27.09.2020 02:16 11,3 C 10,6 C 10,0 C 99 % 994,0 hPa 0,0 l/m 0 min 0 min 0 W/m 6,4 km/h (2 Bft) 95,74 %
27.09.2020 02:18 11,3 C 10,6 C 10,0 C 99 % 993,9 hPa 0,0 l/m 0 min 0 min 0 W/m 3,2 km/h (1 Bft) 95,74 %
27.09.2020 02:20 11,3 C 10,6 C 10,0 C 99 % 993,9 hPa 0,2 l/m 0 min 0 min 0 W/m 3,2 km/h (1 Bft) 95,65 %
27.09.2020 02:22 11,3 C 10,6 C 10,0 C 99 % 993,9 hPa 0,0 l/m 0 min 0 min 0 W/m 3,2 km/h (1 Bft) 95,74 %
27.09.2020 02:24 11,3 C 10,6 C 10,0 C 99 % 993,9 hPa 0,0 l/m 0 min 0 min 0 W/m 12,9 km/h (3 Bft) 91,49 %
27.09.2020 02:26 11,3 C 10,6 C 10,0 C 99 % 993,9 hPa 0,0 l/m 0 min 0 min 0 W/m 0,0 km/h (0 Bft) 97,87 %
27.09.2020 02:28 11,3 C 10,6 C 10,0 C 99 % 993,9 hPa 0,0 l/m 0 min 0 min 0 W/m 0,0 km/h (0 Bft) 97,87 %
27.09.2020 02:30 11,3 C 10,6 C 10,0 C 99 % 993,9 hPa 0,2 l/m 0 min 0 min 0 W/m 0,0 km/h (0 Bft) 97,87 %
27.09.2020 02:32 11,4 C 10,6 C 10,0 C 99 % 993,8 hPa 0,0 l/m 0 min 0 min 0 W/m 6,4 km/h (2 Bft) 97,83 %
27.09.2020 02:34 11,4 C 10,6 C 10,0 C 99 % 993,8 hPa 0,0 l/m 0 min 0 min 0 W/m 3,2 km/h (1 Bft) 97,87 %
27.09.2020 02:36 11,4 C 10,6 C 10,0 C 99 % 993,8 hPa 0,0 l/m 0 min 0 min 0 W/m 6,4 km/h (2 Bft) 100,00 %
27.09.2020 02:38 11,4 C 10,6 C 10,0 C 99 % 993,7 hPa 0,0 l/m 0 min 0 min 0 W/m 9,7 km/h (2 Bft) 100,00 %
27.09.2020 02:40 11,4 C 10,6 C 10,0 C 99 % 993,6 hPa 0,0 l/m 0 min 0 min 0 W/m 0,0 km/h (0 Bft) 100,00 %
27.09.2020 02:42 11,4 C 10,6 C 10,0 C 99 % 993,6 hPa 0,0 l/m 0 min 0 min 0 W/m 6,4 km/h (2 Bft) 97,87 %
27.09.2020 02:44 11,4 C 10,6 C 10,6 C 99 % 993,6 hPa 0,0 l/m 0 min 0 min 0 W/m 6,4 km/h (2 Bft) 100,00 %
27.09.2020 02:46 11,4 C 10,6 C 10,6 C 99 % 993,6 hPa 0,0 l/m 0 min 0 min 0 W/m 16,1 km/h (3 Bft) 97,87 %
27.09.2020 02:48 11,4 C 10,6 C 10,6 C 99 % 993,5 hPa 0,2 l/m 0 min 0 min 0 W/m 16,1 km/h (3 Bft) 100,00 %
27.09.2020 02:50 11,4 C 10,6 C 10,6 C 99 % 993,6 hPa 0,0 l/m 0 min 0 min 0 W/m 0,0 km/h (0 Bft) 100,00 %
27.09.2020 02:52 11,4 C 10,6 C 10,6 C 99 % 993,6 hPa 0,0 l/m 0 min 0 min 0 W/m 3,2 km/h (1 Bft) 91,49 %
27.09.2020 02:54 11,4 C 10,6 C 10,6 C 99 % 993,5 hPa 0,0 l/m 0 min 0 min 0 W/m 3,2 km/h (1 Bft) 100,00 %
27.09.2020 02:56 11,4 C 10,6 C 10,6 C 99 % 993,5 hPa 0,0 l/m 0 min 0 min 0 W/m 3,2 km/h (1 Bft) 100,00 %
27.09.2020 02:58 11,4 C 10,6 C 10,6 C 99 % 993,5 hPa 0,0 l/m 0 min 0 min 0 W/m 3,2 km/h (1 Bft) 100,00 %
27.09.2020 03:00 11,4 C 10,6 C 10,6 C 99 % 993,4 hPa 0,0 l/m 0 min 0 min 0 W/m 6,4 km/h (2 Bft) 100,00 %
27.09.2020 03:02 11,5 C 10,6 C 10,6 C 99 % 993,4 hPa 0,0 l/m 0 min 0 min 0 W/m 3,2 km/h (1 Bft) 95,74 %
27.09.2020 03:04 11,5 C 10,6 C 10,6 C 99 % 993,4 hPa 0,0 l/m 0 min 0 min 0 W/m 0,0 km/h (0 Bft) 100,00 %
27.09.2020 03:06 11,5 C 10,6 C 10,6 C 99 % 993,4 hPa 0,0 l/m 0 min 0 min 0 W/m 3,2 km/h (1 Bft) 97,83 %
27.09.2020 03:08 11,5 C 10,6 C 10,6 C 100 % 993,4 hPa 0,2 l/m 0 min 0 min 0 W/m 0,0 km/h (0 Bft) 100,00 %
27.09.2020 03:10 11,5 C 10,6 C 10,6 C 100 % 993,3 hPa 0,0 l/m 0 min 0 min 0 W/m 0,0 km/h (0 Bft) 100,00 %
27.09.2020 03:12 11,5 C 10,6 C 10,6 C 100 % 993,3 hPa 0,0 l/m 0 min 0 min 0 W/m 19,3 km/h (3 Bft) 100,00 %
27.09.2020 03:14 11,5 C 10,6 C 10,6 C 100 % 993,3 hPa 0,0 l/m 0 min 2 min 0 W/m 0,0 km/h (0 Bft) 100,00 %
27.09.2020 03:16 11,5 C 10,6 C 10,6 C 100 % 993,2 hPa 0,0 l/m 0 min 0 min 0 W/m 0,0 km/h (0 Bft) 100,00 %
27.09.2020 03:18 11,6 C 10,6 C 10,6 C 100 % 993,2 hPa 0,0 l/m 0 min 0 min 0 W/m 0,0 km/h (0 Bft) 100,00 %
27.09.2020 03:20 11,6 C 10,6 C 10,6 C 100 % 993,2 hPa 0,0 l/m 0 min 0 min 0 W/m 0,0 km/h (0 Bft) 100,00 %
27.09.2020 03:22 11,6 C 10,6 C 10,6 C 100 % 993,1 hPa 0,0 l/m 0 min 0 min 0 W/m 0,0 km/h (0 Bft) 100,00 %
27.09.2020 03:24 11,6 C 10,6 C 10,6 C 100 % 993,1 hPa 0,2 l/m 0 min 0 min 0 W/m 0,0 km/h (0 Bft) 100,00 %
27.09.2020 03:26 11,6 C 10,6 C 10,6 C 100 % 993,1 hPa 0,0 l/m 0 min 0 min 0 W/m 0,0 km/h (0 Bft) 100,00 %
27.09.2020 03:28 11,6 C 10,6 C 10,6 C 100 % 993,1 hPa 0,0 l/m 0 min 0 min 0 W/m 0,0 km/h (0 Bft) 100,00 %
27.09.2020 03:30 11,6 C 10,6 C 10,6 C 100 % 993,1 hPa 0,0 l/m 0 min 0 min 0 W/m 0,0 km/h (0 Bft) 100,00 %
27.09.2020 03:32 11,6 C 10,6 C 10,6 C 100 % 993,1 hPa 0,0 l/m 0 min 0 min 0 W/m 0,0 km/h (0 Bft) 100,00 %
27.09.2020 03:34 11,6 C 10,6 C 10,6 C 100 % 993,0 hPa 0,0 l/m 0 min 0 min 0 W/m 0,0 km/h (0 Bft) 100,00 %
27.09.2020 03:36 11,6 C 10,6 C 10,6 C 100 % 993,0 hPa 0,0 l/m 0 min 0 min 0 W/m 0,0 km/h (0 Bft) 97,87 %
27.09.2020 03:38 11,6 C 10,6 C 10,6 C 100 % 993,0 hPa 0,0 l/m 0 min 0 min 0 W/m 0,0 km/h (0 Bft) 100,00 %
27.09.2020 03:40 11,6 C 10,6 C 10,6 C 100 % 993,0 hPa 0,2 l/m 0 min 0 min 0 W/m 0,0 km/h (0 Bft) 97,87 %
27.09.2020 03:42 11,6 C 11,1 C 10,6 C 100 % 993,0 hPa 0,0 l/m 0 min 0 min 0 W/m 0,0 km/h (0 Bft) 97,83 %
27.09.2020 03:44 11,6 C 11,1 C 10,6 C 100 % 993,0 hPa 0,0 l/m 0 min 0 min 0 W/m 0,0 km/h (0 Bft) 97,87 %
27.09.2020 03:46 11,7 C 11,1 C 10,6 C 100 % 993,0 hPa 0,0 l/m 0 min 0 min 0 W/m 0,0 km/h (0 Bft) 97,87 %
27.09.2020 03:48 11,7 C 11,1 C 10,6 C 100 % 993,0 hPa 0,0 l/m 0 min 0 min 0 W/m 0,0 km/h (0 Bft) 97,87 %
27.09.2020 03:50 11,7 C 11,1 C 10,6 C 100 % 993,0 hPa 0,0 l/m 0 min 0 min 0 W/m 0,0 km/h (0 Bft) 97,87 %
27.09.2020 03:52 11,7 C 11,1 C 10,6 C 100 % 993,0 hPa 0,0 l/m 0 min 0 min 0 W/m 0,0 km/h (0 Bft) 95,74 %
27.09.2020 03:54 11,7 C 11,1 C 10,6 C 100 % 992,9 hPa 0,0 l/m 0 min 0 min 0 W/m 0,0 km/h (0 Bft) 97,83 %
27.09.2020 03:56 11,7 C 11,1 C 10,6 C 100 % 992,9 hPa 0,0 l/m 0 min 0 min 0 W/m 0,0 km/h (0 Bft) 97,87 %
27.09.2020 03:58 11,7 C 11,1 C 10,6 C 100 % 992,9 hPa 0,0 l/m 0 min 0 min 0 W/m 0,0 km/h (0 Bft) 97,87 %
27.09.2020 04:00 11,7 C 11,1 C 10,6 C 100 % 992,9 hPa 0,0 l/m 0 min 0 min 0 W/m 6,4 km/h (2 Bft) 97,87 %
27.09.2020 04:02 11,7 C 11,1 C 10,6 C 100 % 992,9 hPa 0,2 l/m 0 min 0 min 0 W/m 0,0 km/h (0 Bft) 97,30 %
27.09.2020 04:04 11,8 C 11,1 C 10,6 C 100 % 992,9 hPa 0,0 l/m 0 min 0 min 0 W/m 9,7 km/h (2 Bft) 97,87 %
27.09.2020 04:06 11,8 C 11,1 C 10,6 C 100 % 992,9 hPa 0,0 l/m 0 min 0 min 0 W/m 0,0 km/h (0 Bft) 95,74 %
27.09.2020 04:08 11,8 C 11,1 C 10,6 C 100 % 992,9 hPa 0,0 l/m 0 min 0 min 0 W/m 0,0 km/h (0 Bft) 95,74 %
27.09.2020 04:10 11,8 C 11,1 C 10,6 C 100 % 992,9 hPa 0,0 l/m 0 min 0 min 0 W/m 0,0 km/h (0 Bft) 97,87 %
27.09.2020 04:12 11,8 C 11,1 C 10,6 C 100 % 992,9 hPa 0,0 l/m 0 min 0 min 0 W/m 0,0 km/h (0 Bft) 93,48 %
27.09.2020 04:14 11,8 C 11,1 C 10,6 C 100 % 992,9 hPa 0,0 l/m 0 min 0 min 0 W/m 0,0 km/h (0 Bft) 97,87 %
27.09.2020 04:16 11,8 C 11,1 C 10,6 C 100 % 993,0 hPa 0,0 l/m 0 min 0 min 0 W/m 0,0 km/h (0 Bft) 95,74 %
27.09.2020 04:18 11,8 C 11,1 C 10,6 C 100 % 993,0 hPa 0,0 l/m 0 min 0 min 0 W/m 0,0 km/h (0 Bft) 97,87 %
27.09.2020 04:20 11,8 C 11,1 C 10,6 C 100 % 993,0 hPa 0,0 l/m 0 min 0 min 0 W/m 0,0 km/h (0 Bft) 95,74 %
27.09.2020 04:22 11,8 C 11,1 C 10,6 C 100 % 993,0 hPa 0,0 l/m 0 min 0 min 0 W/m 0,0 km/h (0 Bft) 97,87 %
27.09.2020 04:24 11,8 C 11,1 C 10,6 C 100 % 992,9 hPa 0,0 l/m 0 min 0 min 0 W/m 0,0 km/h (0 Bft) 100,00 %
27.09.2020 04:26 11,9 C 11,1 C 10,6 C 100 % 993,0 hPa 0,0 l/m 0 min 0 min 0 W/m 0,0 km/h (0 Bft) 97,87 %
27.09.2020 04:28 11,9 C 11,1 C 10,6 C 100 % 993,0 hPa 0,0 l/m 0 min 0 min 0 W/m 0,0 km/h (0 Bft) 97,87 %
27.09.2020 04:30 11,9 C 11,1 C 10,6 C 100 % 993,0 hPa 0,0 l/m 0 min 0 min 0 W/m 0,0 km/h (0 Bft) 100,00 %
27.09.2020 04:32 11,9 C 11,1 C 11,1 C 100 % 992,9 hPa 0,0 l/m 0 min 0 min 0 W/m 0,0 km/h (0 Bft) 95,74 %
27.09.2020 04:34 11,9 C 11,1 C 11,1 C 100 % 992,9 hPa 0,0 l/m 0 min 0 min 0 W/m 6,4 km/h (2 Bft) 97,83 %
27.09.2020 04:36 11,9 C 11,1 C 11,1 C 100 % 993,0 hPa 0,0 l/m 0 min 0 min 0 W/m 0,0 km/h (0 Bft) 95,74 %
27.09.2020 04:38 11,9 C 11,1 C 11,1 C 100 % 993,0 hPa 0,0 l/m 0 min 0 min 0 W/m 0,0 km/h (0 Bft) 97,87 %
27.09.2020 04:40 11,9 C 11,1 C 11,1 C 100 % 993,1 hPa 0,0 l/m 0 min 0 min 0 W/m 0,0 km/h (0 Bft) 97,87 %
27.09.2020 04:42 11,9 C 11,1 C 11,1 C 100 % 993,1 hPa 0,0 l/m 0 min 0 min 0 W/m 0,0 km/h (0 Bft) 97,87 %
27.09.2020 04:44 12,0 C 11,1 C 11,1 C 100 % 993,1 hPa 0,0 l/m 0 min 0 min 0 W/m 0,0 km/h (0 Bft) 89,36 %
27.09.2020 04:46 12,0 C 11,1 C 11,1 C 100 % 993,1 hPa 0,0 l/m 0 min 0 min 0 W/m 0,0 km/h (0 Bft) 97,83 %
27.09.2020 04:48 12,0 C 11,7 C 11,1 C 100 % 993,1 hPa 0,0 l/m 0 min 0 min 0 W/m 0,0 km/h (0 Bft) 97,87 %
27.09.2020 04:50 12,0 C 11,7 C 11,1 C 100 % 993,1 hPa 0,0 l/m 0 min 0 min 0 W/m 0,0 km/h (0 Bft) 97,87 %
27.09.2020 04:52 12,0 C 11,7 C 11,1 C 100 % 993,1 hPa 0,0 l/m 0 min 0 min 0 W/m 0,0 km/h (0 Bft) 97,87 %
27.09.2020 04:54 12,1 C 11,7 C 11,1 C 100 % 993,1 hPa 0,0 l/m 0 min 0 min 0 W/m 0,0 km/h (0 Bft) 95,74 %
27.09.2020 04:56 12,1 C 11,7 C 11,1 C 100 % 993,2 hPa 0,0 l/m 0 min 0 min 0 W/m 0,0 km/h (0 Bft) 97,87 %
27.09.2020 04:58 12,1 C 11,7 C 11,1 C 100 % 993,2 hPa 0,0 l/m 0 min 0 min 0 W/m 0,0 km/h (0 Bft) 95,65 %
27.09.2020 05:00 12,1 C 11,7 C 11,1 C 100 % 993,2 hPa 0,0 l/m 0 min 0 min 0 W/m 0,0 km/h (0 Bft) 95,74 %
27.09.2020 05:02 12,1 C 11,7 C 11,1 C 100 % 993,2 hPa 0,2 l/m 0 min 0 min 0 W/m 0,0 km/h (0 Bft) 97,87 %
27.09.2020 05:04 12,1 C 11,7 C 11,1 C 100 % 993,2 hPa 0,0 l/m 0 min 0 min 0 W/m 0,0 km/h (0 Bft) 97,87 %
27.09.2020 05:06 12,1 C 11,7 C 11,1 C 100 % 993,4 hPa 0,0 l/m 0 min 0 min 0 W/m 0,0 km/h (0 Bft) 95,74 %
27.09.2020 05:08 12,1 C 11,7 C 11,1 C 100 % 993,4 hPa 0,0 l/m 0 min 0 min 0 W/m 0,0 km/h (0 Bft) 93,62 %
27.09.2020 05:10 12,1 C 11,7 C 11,1 C 100 % 993,3 hPa 0,0 l/m 0 min 0 min 0 W/m 0,0 km/h (0 Bft) 97,83 %
27.09.2020 05:12 12,1 C 11,7 C 11,1 C 100 % 993,3 hPa 0,0 l/m 0 min 0 min 0 W/m 0,0 km/h (0 Bft) 95,74 %
27.09.2020 05:14 12,1 C 11,7 C 11,1 C 100 % 993,3 hPa 0,0 l/m 0 min 0 min 0 W/m 0,0 km/h (0 Bft) 93,62 %
27.09.2020 05:16 12,1 C 11,7 C 11,1 C 100 % 993,3 hPa 0,0 l/m 0 min 0 min 0 W/m 0,0 km/h (0 Bft) 95,74 %
27.09.2020 05:18 12,2 C 11,7 C 11,1 C 100 % 993,4 hPa 0,0 l/m 0 min 0 min 0 W/m 0,0 km/h (0 Bft) 95,74 %
27.09.2020 05:20 12,2 C 11,7 C 11,1 C 100 % 993,4 hPa 0,0 l/m 0 min 0 min 0 W/m 3,2 km/h (1 Bft) 93,62 %
27.09.2020 05:22 12,2 C 11,7 C 11,1 C 100 % 993,4 hPa 0,0 l/m 0 min 0 min 0 W/m 0,0 km/h (0 Bft) 97,83 %
27.09.2020 05:24 12,2 C 11,7 C 11,1 C 100 % 993,5 hPa 0,0 l/m 0 min 0 min 0 W/m 0,0 km/h (0 Bft) 97,87 %
27.09.2020 05:26 12,2 C 11,7 C 11,1 C 100 % 993,5 hPa 0,0 l/m 0 min 0 min 0 W/m 0,0 km/h (0 Bft) 97,87 %
27.09.2020 05:28 12,2 C 11,1 C 11,1 C 100 % 993,5 hPa 0,0 l/m 0 min 0 min 0 W/m 0,0 km/h (0 Bft) 97,87 %
27.09.2020 05:30 12,2 C 11,1 C 11,1 C 100 % 993,6 hPa 0,0 l/m 0 min 0 min 0 W/m 0,0 km/h (0 Bft) 97,87 %
27.09.2020 05:32 12,2 C 11,1 C 11,1 C 100 % 993,6 hPa 0,0 l/m 0 min 0 min 0 W/m 0,0 km/h (0 Bft) 97,92 %
27.09.2020 05:34 12,2 C 11,1 C 11,1 C 100 % 993,7 hPa 0,0 l/m 0 min 0 min 0 W/m 0,0 km/h (0 Bft) 97,83 %
27.09.2020 05:36 12,2 C 11,1 C 11,1 C 100 % 993,7 hPa 0,0 l/m 0 min 0 min 0 W/m 0,0 km/h (0 Bft) 97,87 %
27.09.2020 05:38 12,2 C 11,1 C 11,1 C 100 % 993,7 hPa 0,0 l/m 0 min 0 min 0 W/m 0,0 km/h (0 Bft) 97,87 %
27.09.2020 05:40 12,2 C 11,1 C 11,1 C 100 % 993,7 hPa 0,0 l/m 0 min 0 min 0 W/m 0,0 km/h (0 Bft) 97,87 %
27.09.2020 05:42 12,2 C 11,1 C 11,1 C 100 % 993,7 hPa 0,0 l/m 0 min 0 min 0 W/m 0,0 km/h (0 Bft) 95,74 %
27.09.2020 05:44 12,2 C 11,1 C 11,1 C 100 % 993,8 hPa 0,0 l/m 0 min 0 min 0 W/m 0,0 km/h (0 Bft) 97,83 %
27.09.2020 05:46 12,2 C 11,1 C 11,1 C 100 % 993,9 hPa 0,0 l/m 0 min 0 min 0 W/m 0,0 km/h (0 Bft) 97,87 %
27.09.2020 05:48 12,2 C 11,1 C 11,1 C 100 % 993,9 hPa 0,0 l/m 0 min 0 min 0 W/m 0,0 km/h (0 Bft) 97,87 %
27.09.2020 05:50 12,2 C 11,1 C 11,1 C 100 % 994,0 hPa 0,0 l/m 0 min 0 min 0 W/m 0,0 km/h (0 Bft) 97,87 %
27.09.2020 05:52 12,2 C 11,1 C 11,1 C 100 % 994,1 hPa 0,0 l/m 0 min 0 min 0 W/m 0,0 km/h (0 Bft) 97,87 %
27.09.2020 05:54 12,1 C 11,1 C 11,1 C 100 % 994,1 hPa 0,0 l/m 0 min 0 min 0 W/m 0,0 km/h (0 Bft) 97,87 %
27.09.2020 05:56 12,1 C 11,1 C 11,1 C 100 % 994,1 hPa 0,0 l/m 0 min 0 min 0 W/m 0,0 km/h (0 Bft) 97,83 %
27.09.2020 05:58 12,1 C 11,1 C 11,1 C 100 % 994,2 hPa 0,0 l/m 0 min 0 min 0 W/m 0,0 km/h (0 Bft) 97,87 %
27.09.2020 06:00 12,1 C 11,1 C 11,1 C 100 % 994,2 hPa 0,0 l/m 0 min 0 min 0 W/m 0,0 km/h (0 Bft) 97,87 %
27.09.2020 06:02 12,1 C 11,1 C 10,6 C 100 % 994,2 hPa 0,0 l/m 0 min 0 min 0 W/m 0,0 km/h (0 Bft) 97,87 %
27.09.2020 06:04 12,1 C 11,1 C 10,6 C 100 % 994,2 hPa 0,0 l/m 0 min 0 min 0 W/m 0,0 km/h (0 Bft) 95,74 %
27.09.2020 06:07 12,0 C 10,6 C 10,6 C 100 % 994,3 hPa 0,0 l/m 0 min 0 min 0 W/m 3,2 km/h (1 Bft) 97,14 %
27.09.2020 06:08 12,0 C 10,6 C 10,6 C 100 % 994,3 hPa 0,0 l/m 0 min 0 min 0 W/m 6,4 km/h (2 Bft) 95,65 %
27.09.2020 06:10 11,9 C 10,6 C 10,6 C 100 % 994,3 hPa 0,0 l/m 0 min 0 min 0 W/m 3,2 km/h (1 Bft) 100,00 %
27.09.2020 06:12 11,9 C 10,6 C 10,6 C 100 % 994,4 hPa 0,0 l/m 0 min 0 min 0 W/m 9,7 km/h (2 Bft) 100,00 %
27.09.2020 06:14 11,8 C 10,6 C 10,6 C 100 % 994,5 hPa 0,0 l/m 0 min 0 min 0 W/m 6,4 km/h (2 Bft) 100,00 %
27.09.2020 06:16 11,7 C 10,6 C 10,0 C 100 % 994,5 hPa 0,0 l/m 0 min 0 min 0 W/m 6,4 km/h (2 Bft) 97,87 %
27.09.2020 06:18 11,7 C 10,0 C 10,0 C 100 % 994,6 hPa 0,0 l/m 0 min 0 min 0 W/m 6,4 km/h (2 Bft) 100,00 %
27.09.2020 06:20 11,6 C 10,0 C 10,0 C 100 % 994,6 hPa 0,0 l/m 0 min 0 min 0 W/m 6,4 km/h (2 Bft) 100,00 %
27.09.2020 06:22 11,5 C 10,0 C 10,0 C 100 % 994,6 hPa 0,0 l/m 0 min 0 min 0 W/m 6,4 km/h (2 Bft) 97,87 %
27.09.2020 06:24 11,5 C 10,0 C 10,0 C 100 % 994,6 hPa 0,0 l/m 0 min 0 min 0 W/m 3,2 km/h (1 Bft) 95,74 %
27.09.2020 06:26 11,4 C 10,0 C 10,0 C 100 % 994,7 hPa 0,0 l/m 0 min 0 min 0 W/m 0,0 km/h (0 Bft) 95,74 %
27.09.2020 06:28 11,4 C 10,0 C 10,0 C 100 % 994,7 hPa 0,0 l/m 0 min 0 min 0 W/m 0,0 km/h (0 Bft) 97,87 %
27.09.2020 06:30 11,4 C 10,0 C 10,0 C 100 % 994,8 hPa 0,0 l/m 0 min 0 min 0 W/m 0,0 km/h (0 Bft) 97,87 %
27.09.2020 06:32 11,3 C 10,0 C 10,0 C 100 % 994,8 hPa 0,0 l/m 0 min 0 min 0 W/m 0,0 km/h (0 Bft) 95,65 %
27.09.2020 06:34 11,3 C 10,0 C 10,0 C 100 % 994,9 hPa 0,0 l/m 0 min 0 min 0 W/m 0,0 km/h (0 Bft) 95,74 %
27.09.2020 06:36 11,3 C 10,0 C 10,0 C 100 % 994,9 hPa 0,0 l/m 0 min 0 min 0 W/m 0,0 km/h (0 Bft) 95,74 %
27.09.2020 06:38 11,3 C 10,0 C 10,0 C 100 % 995,0 hPa 0,0 l/m 0 min 0 min 0 W/m 3,2 km/h (1 Bft) 97,30 %
27.09.2020 06:40 11,2 C 10,0 C 10,0 C 100 % 995,1 hPa 0,0 l/m 0 min 0 min 0 W/m 3,2 km/h (1 Bft) 97,87 %
27.09.2020 06:42 11,2 C 10,0 C 10,0 C 100 % 995,1 hPa 0,0 l/m 0 min 0 min 0 W/m 0,0 km/h (0 Bft) 97,87 %
27.09.2020 06:44 11,2 C 10,0 C 10,0 C 100 % 995,2 hPa 0,0 l/m 0 min 0 min 0 W/m 9,7 km/h (2 Bft) 95,74 %
27.09.2020 06:46 11,1 C 10,0 C 10,0 C 100 % 995,2 hPa 0,0 l/m 0 min 0 min 0 W/m 3,2 km/h (1 Bft) 97,87 %
27.09.2020 06:48 11,1 C 10,0 C 10,0 C 100 % 995,2 hPa 0,0 l/m 0 min 0 min 0 W/m 0,0 km/h (0 Bft) 97,83 %
27.09.2020 06:50 11,0 C 10,0 C 10,0 C 100 % 995,2 hPa 0,0 l/m 0 min 0 min 0 W/m 6,4 km/h (2 Bft) 95,74 %
27.09.2020 06:52 11,0 C 10,0 C 9,4 C 100 % 995,3 hPa 0,0 l/m 0 min 0 min 0 W/m 3,2 km/h (1 Bft) 95,74 %
27.09.2020 06:54 10,9 C 10,0 C 10,0 C 100 % 995,3 hPa 0,0 l/m 0 min 0 min 0 W/m 6,4 km/h (2 Bft) 97,87 %
27.09.2020 06:56 10,9 C 9,4 C 10,0 C 100 % 995,3 hPa 0,0 l/m 0 min 0 min 0 W/m 6,4 km/h (2 Bft) 97,87 %
27.09.2020 06:58 10,8 C 9,4 C 9,4 C 100 % 995,3 hPa 0,0 l/m 0 min 0 min 0 W/m 9,7 km/h (2 Bft) 95,74 %
27.09.2020 07:00 10,8 C 9,4 C 9,4 C 100 % 995,4 hPa 0,0 l/m 0 min 0 min 0 W/m 3,2 km/h (1 Bft) 95,65 %
27.09.2020 07:02 10,8 C 9,4 C 9,4 C 100 % 995,5 hPa 0,0 l/m 0 min 0 min 0 W/m 6,4 km/h (2 Bft) 95,74 %
27.09.2020 07:04 10,7 C 9,4 C 9,4 C 100 % 995,5 hPa 0,0 l/m 0 min 0 min 0 W/m 3,2 km/h (1 Bft) 97,87 %
27.09.2020 07:06 10,7 C 9,4 C 9,4 C 100 % 995,5 hPa 0,0 l/m 0 min 0 min 0 W/m 3,2 km/h (1 Bft) 96,15 %
27.09.2020 07:08 10,7 C 9,4 C 9,4 C 100 % 995,6 hPa 0,0 l/m 0 min 0 min 0 W/m 9,7 km/h (2 Bft) 97,62 %
27.09.2020 07:10 10,6 C 9,4 C 9,4 C 100 % 995,7 hPa 0,0 l/m 0 min 0 min 0 W/m 3,2 km/h (1 Bft) 97,83 %
27.09.2020 07:12 10,6 C 9,4 C 9,4 C 100 % 995,7 hPa 0,0 l/m 0 min 0 min 0 W/m 6,4 km/h (2 Bft) 97,87 %
27.09.2020 07:14 10,6 C 9,4 C 9,4 C 100 % 995,8 hPa 0,0 l/m 0 min 0 min 0 W/m 6,4 km/h (2 Bft) 100,00 %
27.09.2020 07:16 10,6 C 9,4 C 9,4 C 100 % 995,9 hPa 0,0 l/m 0 min 0 min 0 W/m 3,2 km/h (1 Bft) 97,87 %
27.09.2020 07:18 10,5 C 9,4 C 9,4 C 100 % 996,0 hPa 0,0 l/m 0 min 0 min 0 W/m 3,2 km/h (1 Bft) 100,00 %
27.09.2020 07:20 10,5 C 9,4 C 9,4 C 100 % 996,0 hPa 0,0 l/m 0 min 0 min 0 W/m 6,4 km/h (2 Bft) 97,87 %
27.09.2020 07:22 10,4 C 9,4 C 9,4 C 100 % 996,0 hPa 0,0 l/m 0 min 0 min 0 W/m 0,0 km/h (0 Bft) 97,83 %
27.09.2020 07:24 10,4 C 9,4 C 9,4 C 100 % 996,1 hPa 0,0 l/m 0 min 0 min 0 W/m 0,0 km/h (0 Bft) 100,00 %
27.09.2020 07:26 10,4 C 9,4 C 9,4 C 100 % 996,1 hPa 0,0 l/m 0 min 0 min 0 W/m 6,4 km/h (2 Bft) 97,87 %
27.09.2020 07:28 10,4 C 9,4 C 9,4 C 100 % 996,2 hPa 0,0 l/m 0 min 0 min 0 W/m 6,4 km/h (2 Bft) 97,87 %
27.09.2020 07:30 10,4 C 9,4 C 9,4 C 100 % 996,2 hPa 0,0 l/m 0 min 0 min 0 W/m 6,4 km/h (2 Bft) 97,87 %
27.09.2020 07:32 10,4 C 9,4 C 9,4 C 100 % 996,3 hPa 0,0 l/m 0 min 0 min 0 W/m 9,7 km/h (2 Bft) 97,87 %
27.09.2020 07:34 10,4 C 9,4 C 9,4 C 100 % 996,3 hPa 0,0 l/m 0 min 0 min 0 W/m 0,0 km/h (0 Bft) 97,83 %
27.09.2020 07:36 10,4 C 9,4 C 9,4 C 100 % 996,3 hPa 0,0 l/m 0 min 0 min 0 W/m 0,0 km/h (0 Bft) 93,62 %
27.09.2020 07:38 10,4 C 9,4 C 9,4 C 100 % 996,4 hPa 0,0 l/m 0 min 0 min 3 W/m 6,4 km/h (2 Bft) 97,87 %
27.09.2020 07:40 10,3 C 9,4 C 9,4 C 100 % 996,4 hPa 0,0 l/m 0 min 0 min 6 W/m 3,2 km/h (1 Bft) 95,74 %
27.09.2020 07:42 10,3 C 9,4 C 9,4 C 100 % 996,4 hPa 0,0 l/m 0 min 0 min 9 W/m 3,2 km/h (1 Bft) 97,87 %
27.09.2020 07:44 10,3 C 9,4 C 9,4 C 100 % 996,5 hPa 0,0 l/m 0 min 0 min 11 W/m 0,0 km/h (0 Bft) 97,87 %
27.09.2020 07:46 10,3 C 9,4 C 9,4 C 100 % 996,6 hPa 0,0 l/m 0 min 0 min 11 W/m 0,0 km/h (0 Bft) 97,83 %
27.09.2020 07:48 10,3 C 9,4 C 9,4 C 100 % 996,6 hPa 0,0 l/m 0 min 0 min 10 W/m 0,0 km/h (0 Bft) 95,74 %
27.09.2020 07:50 10,3 C 9,4 C 9,4 C 100 % 996,7 hPa 0,0 l/m 0 min 0 min 9 W/m 0,0 km/h (0 Bft) 97,87 %
27.09.2020 07:52 10,3 C 9,4 C 9,4 C 100 % 996,8 hPa 0,0 l/m 0 min 0 min 7 W/m 3,2 km/h (1 Bft) 97,87 %
27.09.2020 07:54 10,3 C 9,4 C 9,4 C 100 % 996,9 hPa 0,0 l/m 0 min 0 min 7 W/m 0,0 km/h (0 Bft) 97,87 %
27.09.2020 07:56 10,3 C 9,4 C 9,4 C 100 % 996,9 hPa 0,0 l/m 0 min 0 min 7 W/m 3,2 km/h (1 Bft) 97,87 %
27.09.2020 07:58 10,3 C 9,4 C 9,4 C 100 % 997,0 hPa 0,0 l/m 0 min 0 min 7 W/m 0,0 km/h (0 Bft) 97,83 %
27.09.2020 08:00 10,3 C 9,4 C 9,4 C 100 % 997,1 hPa 0,0 l/m 0 min 0 min 7 W/m 6,4 km/h (2 Bft) 97,87 %
27.09.2020 08:02 10,3 C 9,4 C 9,4 C 100 % 997,1 hPa 0,0 l/m 0 min 0 min 7 W/m 3,2 km/h (1 Bft) 97,87 %
27.09.2020 08:04 10,3 C 9,4 C 9,4 C 100 % 997,2 hPa 0,0 l/m 0 min 0 min 7 W/m 3,2 km/h (1 Bft) 97,87 %
27.09.2020 08:06 10,3 C 9,4 C 9,4 C 100 % 997,3 hPa 0,0 l/m 0 min 0 min 7 W/m 3,2 km/h (1 Bft) 95,74 %
27.09.2020 08:08 10,3 C 9,4 C 9,4 C 100 % 997,4 hPa 0,0 l/m 0 min 0 min 7 W/m 12,9 km/h (3 Bft) 97,83 %
27.09.2020 08:10 10,3 C 9,4 C 9,4 C 100 % 997,4 hPa 0,0 l/m 0 min 0 min 7 W/m 6,4 km/h (2 Bft) 95,74 %
27.09.2020 08:12 10,3 C 9,4 C 9,4 C 100 % 997,5 hPa 0,0 l/m 0 min 0 min 9 W/m 3,2 km/h (1 Bft) 95,74 %
27.09.2020 08:14 10,3 C 9,4 C 9,4 C 100 % 997,5 hPa 0,0 l/m 0 min 0 min 9 W/m 0,0 km/h (0 Bft) 100,00 %
27.09.2020 08:16 10,3 C 9,4 C 9,4 C 100 % 997,6 hPa 0,0 l/m 0 min 0 min 11 W/m 6,4 km/h (2 Bft) 95,74 %
27.09.2020 08:18 10,3 C 9,4 C 9,4 C 100 % 997,6 hPa 0,0 l/m 0 min 0 min 11 W/m 12,9 km/h (3 Bft) 100,00 %
27.09.2020 08:20 10,3 C 9,4 C 9,4 C 100 % 997,7 hPa 0,0 l/m 0 min 0 min 12 W/m 3,2 km/h (1 Bft) 100,00 %
27.09.2020 08:22 10,2 C 9,4 C 9,4 C 100 % 997,7 hPa 0,0 l/m 0 min 0 min 12 W/m 3,2 km/h (1 Bft) 100,00 %
27.09.2020 08:24 10,2 C 9,4 C 9,4 C 100 % 997,8 hPa 0,0 l/m 0 min 0 min 13 W/m 3,2 km/h (1 Bft) 93,62 %
27.09.2020 08:26 10,2 C 9,4 C 9,4 C 100 % 997,9 hPa 0,0 l/m 0 min 0 min 16 W/m 6,4 km/h (2 Bft) 100,00 %
27.09.2020 08:28 10,2 C 9,4 C 9,4 C 100 % 997,9 hPa 0,0 l/m 0 min 0 min 20 W/m 6,4 km/h (2 Bft) 98,11 %
27.09.2020 08:30 10,1 C 9,4 C 9,4 C 100 % 998,0 hPa 0,0 l/m 0 min 0 min 25 W/m 3,2 km/h (1 Bft) 97,87 %
27.09.2020 08:32 10,1 C 9,4 C 9,4 C 100 % 998,1 hPa 0,0 l/m 0 min 0 min 30 W/m 3,2 km/h (1 Bft) 100,00 %
27.09.2020 08:34 10,1 C 9,4 C 9,4 C 100 % 998,1 hPa 0,0 l/m 0 min 0 min 28 W/m 3,2 km/h (1 Bft) 100,00 %
27.09.2020 08:36 10,1 C 9,4 C 9,4 C 100 % 998,2 hPa 0,0 l/m 0 min 0 min 28 W/m 12,9 km/h (3 Bft) 100,00 %
27.09.2020 08:38 10,1 C 9,4 C 9,4 C 100 % 998,2 hPa 0,0 l/m 0 min 0 min 28 W/m 3,2 km/h (1 Bft) 100,00 %
27.09.2020 08:40 10,1 C 9,4 C 9,4 C 100 % 998,3 hPa 0,0 l/m 0 min 0 min 24 W/m 3,2 km/h (1 Bft) 100,00 %
27.09.2020 08:42 10,1 C 9,4 C 9,4 C 100 % 998,4 hPa 0,0 l/m 0 min 0 min 27 W/m 0,0 km/h (0 Bft) 100,00 %
27.09.2020 08:44 10,1 C 9,4 C 9,4 C 100 % 998,4 hPa 0,0 l/m 0 min 0 min 34 W/m 3,2 km/h (1 Bft) 100,00 %
27.09.2020 08:46 10,1 C 9,4 C 9,4 C 100 % 998,5 hPa 0,0 l/m 0 min 0 min 34 W/m 0,0 km/h (0 Bft) 100,00 %
27.09.2020 08:48 10,1 C 9,4 C 9,4 C 100 % 998,6 hPa 0,0 l/m 0 min 0 min 37 W/m 3,2 km/h (1 Bft) 100,00 %
27.09.2020 08:50 10,1 C 9,4 C 9,4 C 100 % 998,6 hPa 0,0 l/m 0 min 0 min 40 W/m 3,2 km/h (1 Bft) 97,87 %
27.09.2020 08:52 10,1 C 9,4 C 9,4 C 100 % 998,7 hPa 0,0 l/m 0 min 0 min 38 W/m 6,4 km/h (2 Bft) 97,87 %
27.09.2020 08:54 10,1 C 9,4 C 9,4 C 100 % 998,7 hPa 0,0 l/m 0 min 0 min 34 W/m 0,0 km/h (0 Bft) 100,00 %
27.09.2020 08:56 10,1 C 9,4 C 9,4 C 100 % 998,7 hPa 0,0 l/m 0 min 0 min 34 W/m 0,0 km/h (0 Bft) 97,83 %
27.09.2020 08:58 10,1 C 9,4 C 9,4 C 100 % 998,8 hPa 0,0 l/m 0 min 0 min 33 W/m 3,2 km/h (1 Bft) 95,74 %
27.09.2020 09:00 10,1 C 9,4 C 9,4 C 100 % 998,8 hPa 0,0 l/m 0 min 0 min 33 W/m 9,7 km/h (2 Bft) 97,87 %
27.09.2020 09:02 10,0 C 9,4 C 8,9 C 100 % 998,9 hPa 0,0 l/m 0 min 0 min 32 W/m 3,2 km/h (1 Bft) 95,74 %
27.09.2020 09:04 10,0 C 9,4 C 8,9 C 100 % 999,0 hPa 0,0 l/m 0 min 0 min 34 W/m 3,2 km/h (1 Bft) 97,87 %
27.09.2020 09:06 9,9 C 9,4 C 8,9 C 100 % 999,0 hPa 0,0 l/m 0 min 0 min 37 W/m 6,4 km/h (2 Bft) 97,87 %
27.09.2020 09:08 9,9 C 9,4 C 9,4 C 100 % 999,1 hPa 0,0 l/m 0 min 0 min 39 W/m 0,0 km/h (0 Bft) 97,83 %
27.09.2020 09:10 9,9 C 9,4 C 9,4 C 100 % 999,1 hPa 0,0 l/m 0 min 0 min 42 W/m 3,2 km/h (1 Bft) 97,87 %
27.09.2020 09:12 9,9 C 9,4 C 9,4 C 100 % 999,2 hPa 0,0 l/m 0 min 0 min 47 W/m 0,0 km/h (0 Bft) 95,74 %
27.09.2020 09:14 9,9 C 9,4 C 9,4 C 100 % 999,3 hPa 0,0 l/m 0 min 0 min 47 W/m 0,0 km/h (0 Bft) 95,74 %
27.09.2020 09:16 9,9 C 9,4 C 9,4 C 100 % 999,3 hPa 0,0 l/m 0 min 0 min 44 W/m 0,0 km/h (0 Bft) 95,74 %
27.09.2020 09:18 9,9 C 9,4 C 9,4 C 100 % 999,4 hPa 0,0 l/m 0 min 0 min 45 W/m 0,0 km/h (0 Bft) 95,65 %
27.09.2020 09:20 9,9 C 9,4 C 9,4 C 100 % 999,4 hPa 0,0 l/m 0 min 0 min 48 W/m 0,0 km/h (0 Bft) 95,74 %
27.09.2020 09:22 9,9 C 9,4 C 9,4 C 100 % 999,5 hPa 0,0 l/m 0 min 0 min 51 W/m 0,0 km/h (0 Bft) 93,62 %
27.09.2020 09:24 10,0 C 10,0 C 9,4 C 100 % 999,5 hPa 0,0 l/m 0 min 0 min 62 W/m 0,0 km/h (0 Bft) 93,62 %
27.09.2020 09:26 10,0 C 10,0 C 9,4 C 100 % 999,5 hPa 0,0 l/m 0 min 0 min 59 W/m 0,0 km/h (0 Bft) 95,74 %
27.09.2020 09:28 10,0 C 10,0 C 9,4 C 100 % 999,5 hPa 0,0 l/m 0 min 0 min 52 W/m 0,0 km/h (0 Bft) 54,35 %
27.09.2020 09:30 10,0 C 10,0 C 9,4 C 100 % 999,6 hPa 0,0 l/m 0 min 0 min 50 W/m 3,2 km/h (1 Bft) 95,65 %
27.09.2020 09:32 10,1 C 10,0 C 9,4 C 100 % 999,6 hPa 0,0 l/m 0 min 0 min 52 W/m 6,4 km/h (2 Bft) 95,74 %
27.09.2020 09:34 10,1 C 9,4 C 9,4 C 100 % 999,6 hPa 0,0 l/m 0 min 0 min 53 W/m 0,0 km/h (0 Bft) 95,74 %
27.09.2020 09:36 10,1 C 10,0 C 9,4 C 100 % 999,7 hPa 0,0 l/m 0 min 0 min 56 W/m 3,2 km/h (1 Bft) 95,74 %
27.09.2020 09:38 10,1 C 10,0 C 9,4 C 100 % 999,8 hPa 0,0 l/m 0 min 0 min 62 W/m 3,2 km/h (1 Bft) 91,49 %
27.09.2020 09:40 10,1 C 10,0 C 9,4 C 100 % 999,8 hPa 0,0 l/m 0 min 0 min 59 W/m 0,0 km/h (0 Bft) 95,74 %
27.09.2020 09:42 10,1 C 10,0 C 9,4 C 100 % 999,8 hPa 0,0 l/m 0 min 0 min 70 W/m 0,0 km/h (0 Bft) 95,65 %
27.09.2020 09:44 10,1 C 10,0 C 9,4 C 100 % 999,8 hPa 0,0 l/m 0 min 0 min 60 W/m 0,0 km/h (0 Bft) 93,62 %
27.09.2020 09:46 10,1 C 10,0 C 9,4 C 100 % 999,9 hPa 0,0 l/m 0 min 0 min 74 W/m 0,0 km/h (0 Bft) 95,74 %
27.09.2020 09:48 10,1 C 10,0 C 9,4 C 100 % 999,9 hPa 0,0 l/m 0 min 0 min 87 W/m 0,0 km/h (0 Bft) 95,74 %
27.09.2020 09:50 10,1 C 10,0 C 9,4 C 100 % 1000,0 hPa 0,0 l/m 0 min 0 min 99 W/m 0,0 km/h (0 Bft) 91,49 %
27.09.2020 09:52 10,1 C 10,6 C 10,0 C 100 % 1000,0 hPa 0,0 l/m 0 min 0 min 105 W/m 0,0 km/h (0 Bft) 97,87 %
27.09.2020 09:54 10,2 C 10,6 C 10,0 C 100 % 1000,1 hPa 0,0 l/m 0 min 0 min 108 W/m 0,0 km/h (0 Bft) 95,65 %
27.09.2020 09:56 10,2 C 10,6 C 10,0 C 100 % 1000,1 hPa 0,0 l/m 0 min 0 min 123 W/m 0,0 km/h (0 Bft) 97,87 %
27.09.2020 09:58 10,2 C 11,1 C 10,0 C 100 % 1000,2 hPa 0,0 l/m 0 min 0 min 142 W/m 0,0 km/h (0 Bft) 97,87 %
27.09.2020 10:00 10,3 C 11,1 C 10,0 C 100 % 1000,2 hPa 0,0 l/m 0 min 0 min 151 W/m 0,0 km/h (0 Bft) 95,74 %
27.09.2020 10:02 10,4 C 11,1 C 10,6 C 100 % 1000,3 hPa 0,0 l/m 0 min 0 min 150 W/m 0,0 km/h (0 Bft) 95,74 %
27.09.2020 10:04 10,4 C 11,1 C 10,6 C 100 % 1000,3 hPa 0,0 l/m 0 min 0 min 134 W/m 3,2 km/h (1 Bft) 100,00 %
27.09.2020 10:06 10,4 C 11,1 C 10,6 C 100 % 1000,3 hPa 0,0 l/m 0 min 0 min 114 W/m 0,0 km/h (0 Bft) 100,00 %
27.09.2020 10:08 10,5 C 11,1 C 10,6 C 100 % 1000,4 hPa 0,0 l/m 0 min 0 min 94 W/m 0,0 km/h (0 Bft) 97,87 %
27.09.2020 10:10 10,6 C 11,1 C 10,6 C 100 % 1000,4 hPa 0,0 l/m 0 min 0 min 90 W/m 0,0 km/h (0 Bft) 95,74 %
27.09.2020 10:12 10,6 C 10,6 C 10,0 C 100 % 1000,5 hPa 0,0 l/m 0 min 0 min 79 W/m 3,2 km/h (1 Bft) 100,00 %
27.09.2020 10:14 10,6 C 10,6 C 10,0 C 100 % 1000,5 hPa 0,0 l/m 0 min 0 min 85 W/m 0,0 km/h (0 Bft) 100,00 %
27.09.2020 10:16 10,7 C 10,6 C 10,0 C 100 % 1000,5 hPa 0,0 l/m 0 min 0 min 74 W/m 3,2 km/h (1 Bft) 97,83 %
27.09.2020 10:18 10,7 C 10,6 C 10,0 C 100 % 1000,5 hPa 0,0 l/m 0 min 0 min 79 W/m 0,0 km/h (0 Bft) 97,87 %
27.09.2020 10:20 10,7 C 10,6 C 10,0 C 100 % 1000,5 hPa 0,0 l/m 0 min 0 min 82 W/m 0,0 km/h (0 Bft) 95,74 %
27.09.2020 10:22 10,7 C 10,6 C 10,0 C 100 % 1000,6 hPa 0,0 l/m 0 min 0 min 79 W/m 0,0 km/h (0 Bft) 95,74 %
27.09.2020 10:24 10,8 C 10,6 C 10,0 C 100 % 1000,6 hPa 0,0 l/m 0 min 0 min 82 W/m 0,0 km/h (0 Bft) 97,87 %
27.09.2020 10:26 10,8 C 10,6 C 10,0 C 100 % 1000,6 hPa 0,0 l/m 0 min 0 min 101 W/m 0,0 km/h (0 Bft) 97,87 %
27.09.2020 10:28 10,8 C 11,1 C 10,0 C 100 % 1000,7 hPa 0,0 l/m 0 min 0 min 120 W/m 0,0 km/h (0 Bft) 97,83 %
27.09.2020 10:30 10,8 C 11,1 C 10,6 C 100 % 1000,8 hPa 0,0 l/m 0 min 0 min 118 W/m 0,0 km/h (0 Bft) 97,87 %
27.09.2020 10:32 10,8 C 11,1 C 10,6 C 100 % 1000,8 hPa 0,0 l/m 0 min 0 min 107 W/m 0,0 km/h (0 Bft) 97,87 %
27.09.2020 10:34 10,9 C 11,1 C 10,6 C 100 % 1000,8 hPa 0,0 l/m 0 min 0 min 102 W/m 3,2 km/h (1 Bft) 97,87 %
27.09.2020 10:36 10,9 C 11,1 C 10,6 C 100 % 1000,8 hPa 0,0 l/m 0 min 0 min 104 W/m 0,0 km/h (0 Bft) 95,74 %
27.09.2020 10:38 10,9 C 11,1 C 10,0 C 100 % 1000,8 hPa 0,0 l/m 0 min 0 min 105 W/m 0,0 km/h (0 Bft) 97,87 %
27.09.2020 10:40 10,9 C 11,1 C 10,6 C 100 % 1000,9 hPa 0,0 l/m 0 min 0 min 110 W/m 0,0 km/h (0 Bft) 97,83 %
27.09.2020 10:42 10,9 C 11,1 C 10,6 C 100 % 1000,9 hPa 0,0 l/m 0 min 0 min 122 W/m 0,0 km/h (0 Bft) 97,87 %
27.09.2020 10:44 11,0 C 11,1 C 10,6 C 100 % 1000,9 hPa 0,0 l/m 0 min 0 min 119 W/m 0,0 km/h (0 Bft) 97,87 %
27.09.2020 10:46 11,0 C 11,1 C 10,6 C 100 % 1000,9 hPa 0,0 l/m 0 min 0 min 115 W/m 0,0 km/h (0 Bft) 97,87 %
27.09.2020 10:48 11,0 C 11,1 C 10,6 C 100 % 1000,9 hPa 0,0 l/m 0 min 0 min 119 W/m 0,0 km/h (0 Bft) 97,87 %
27.09.2020 10:50 11,1 C 11,1 C 10,6 C 100 % 1000,9 hPa 0,0 l/m 0 min 0 min 110 W/m 3,2 km/h (1 Bft) 95,74 %
27.09.2020 10:52 11,0 C 11,1 C 10,6 C 100 % 1000,9 hPa 0,0 l/m 0 min 0 min 119 W/m 0,0 km/h (0 Bft) 97,83 %
27.09.2020 10:54 11,0 C 11,1 C 10,6 C 100 % 1000,9 hPa 0,0 l/m 0 min 0 min 117 W/m 3,2 km/h (1 Bft) 93,62 %
27.09.2020 10:56 11,1 C 11,7 C 10,6 C 100 % 1001,0 hPa 0,0 l/m 0 min 0 min 129 W/m 0,0 km/h (0 Bft) 97,87 %
27.09.2020 10:58 11,1 C 11,7 C 10,6 C 100 % 1001,0 hPa 0,0 l/m 0 min 0 min 167 W/m 6,4 km/h (2 Bft) 95,74 %
27.09.2020 11:00 11,1 C 11,7 C 10,6 C 100 % 1001,1 hPa 0,0 l/m 0 min 0 min 187 W/m 3,2 km/h (1 Bft) 97,87 %
27.09.2020 11:02 11,1 C 11,7 C 10,6 C 100 % 1001,0 hPa 0,0 l/m 0 min 0 min 164 W/m 0,0 km/h (0 Bft) 97,87 %
27.09.2020 11:04 11,1 C 11,7 C 10,6 C 100 % 1001,1 hPa 0,0 l/m 0 min 0 min 140 W/m 0,0 km/h (0 Bft) 97,83 %
27.09.2020 11:06 11,1 C 11,7 C 10,6 C 100 % 1001,2 hPa 0,0 l/m 0 min 0 min 122 W/m 3,2 km/h (1 Bft) 97,87 %
27.09.2020 11:08 11,1 C 11,7 C 10,6 C 100 % 1001,2 hPa 0,0 l/m 0 min 0 min 109 W/m 0,0 km/h (0 Bft) 97,87 %
27.09.2020 11:10 11,2 C 11,7 C 10,6 C 100 % 1001,3 hPa 0,0 l/m 0 min 0 min 126 W/m 0,0 km/h (0 Bft) 95,74 %
27.09.2020 11:12 11,2 C 11,7 C 10,6 C 100 % 1001,2 hPa 0,0 l/m 0 min 0 min 151 W/m 0,0 km/h (0 Bft) 97,87 %
27.09.2020 11:14 11,2 C 11,7 C 10,6 C 100 % 1001,3 hPa 0,0 l/m 0 min 0 min 154 W/m 0,0 km/h (0 Bft) 100,00 %
27.09.2020 11:16 11,2 C 11,7 C 11,1 C 100 % 1001,4 hPa 0,0 l/m 0 min 0 min 149 W/m 0,0 km/h (0 Bft) 100,00 %
27.09.2020 11:18 11,3 C 12,2 C 11,1 C 100 % 1001,4 hPa 0,0 l/m 0 min 0 min 142 W/m 0,0 km/h (0 Bft) 97,87 %
27.09.2020 11:20 11,3 C 11,7 C 10,6 C 100 % 1001,6 hPa 0,0 l/m 0 min 0 min 125 W/m 0,0 km/h (0 Bft) 100,00 %
27.09.2020 11:22 11,3 C 11,7 C 10,6 C 100 % 1001,7 hPa 0,0 l/m 0 min 0 min 97 W/m 0,0 km/h (0 Bft) 100,00 %
27.09.2020 11:24 11,3 C 11,1 C 10,6 C 100 % 1001,7 hPa 0,0 l/m 0 min 0 min 86 W/m 0,0 km/h (0 Bft) 100,00 %
27.09.2020 11:26 11,3 C 11,1 C 10,6 C 100 % 1001,7 hPa 0,0 l/m 0 min 0 min 88 W/m 0,0 km/h (0 Bft) 100,00 %
27.09.2020 11:28 11,3 C 11,1 C 10,6 C 100 % 1001,7 hPa 0,0 l/m 0 min 0 min 93 W/m 0,0 km/h (0 Bft) 100,00 %
27.09.2020 11:30 11,3 C 11,1 C 10,6 C 100 % 1001,7 hPa 0,0 l/m 0 min 0 min 101 W/m 0,0 km/h (0 Bft) 100,00 %
27.09.2020 11:32 11,3 C 11,1 C 10,6 C 100 % 1001,8 hPa 0,0 l/m 0 min 0 min 101 W/m 0,0 km/h (0 Bft) 100,00 %
27.09.2020 11:34 11,3 C 11,1 C 10,6 C 100 % 1001,8 hPa 0,0 l/m 0 min 0 min 93 W/m 0,0 km/h (0 Bft) 100,00 %
27.09.2020 11:36 11,3 C 11,7 C 10,6 C 100 % 1001,8 hPa 0,0 l/m 0 min 0 min 94 W/m 0,0 km/h (0 Bft) 100,00 %
27.09.2020 11:38 11,3 C 11,7 C 10,6 C 100 % 1001,7 hPa 0,0 l/m 0 min 0 min 111 W/m 0,0 km/h (0 Bft) 100,00 %
27.09.2020 11:40 11,3 C 11,7 C 10,6 C 100 % 1001,8 hPa 0,0 l/m 0 min 0 min 122 W/m 0,0 km/h (0 Bft) 100,00 %
27.09.2020 11:42 11,3 C 11,7 C 10,6 C 100 % 1001,8 hPa 0,0 l/m 0 min 0 min 130 W/m 0,0 km/h (0 Bft) 100,00 %
27.09.2020 11:44 11,3 C 12,2 C 10,6 C 100 % 1001,9 hPa 0,0 l/m 0 min 0 min 140 W/m 0,0 km/h (0 Bft) 97,87 %
27.09.2020 11:46 11,4 C 12,2 C 10,6 C 100 % 1001,9 hPa 0,0 l/m 0 min 0 min 150 W/m 0,0 km/h (0 Bft) 97,87 %
27.09.2020 11:48 11,4 C 12,2 C 10,6 C 100 % 1002,0 hPa 0,0 l/m 0 min 0 min 158 W/m 0,0 km/h (0 Bft) 97,87 %
27.09.2020 11:50 11,4 C 12,8 C 11,1 C 100 % 1002,0 hPa 0,0 l/m 0 min 0 min 170 W/m 0,0 km/h (0 Bft) 97,83 %
27.09.2020 11:52 11,4 C 12,8 C 11,1 C 100 % 1002,0 hPa 0,0 l/m 0 min 0 min 172 W/m 6,4 km/h (2 Bft) 97,87 %
27.09.2020 11:54 11,5 C 12,8 C 11,1 C 100 % 1002,1 hPa 0,0 l/m 0 min 0 min 180 W/m 0,0 km/h (0 Bft) 97,87 %
27.09.2020 11:56 11,5 C 12,8 C 11,1 C 100 % 1002,1 hPa 0,0 l/m 0 min 0 min 178 W/m 0,0 km/h (0 Bft) 97,87 %
27.09.2020 11:58 11,6 C 13,3 C 11,1 C 100 % 1002,1 hPa 0,0 l/m 0 min 0 min 210 W/m 0,0 km/h (0 Bft) 95,74 %
27.09.2020 12:00 11,6 C 13,3 C 11,1 C 100 % 1002,2 hPa 0,0 l/m 0 min 0 min 221 W/m 0,0 km/h (0 Bft) 93,62 %
27.09.2020 12:02 11,6 C 13,3 C 11,1 C 100 % 1002,1 hPa 0,0 l/m 0 min 0 min 213 W/m 0,0 km/h (0 Bft) 37,84 %
27.09.2020 12:04 11,6 C 13,3 C 11,1 C 100 % 1002,3 hPa 0,0 l/m 0 min 0 min 236 W/m 0,0 km/h (0 Bft) 95,74 %
27.09.2020 12:08 11,7 C 14,4 C 11,7 C 100 % 1002,2 hPa 0,0 l/m 4 min 0 min 293 W/m 6,4 km/h (2 Bft) 95,74 %
27.09.2020 12:10 11,8 C 14,4 C 11,7 C 100 % 1002,3 hPa 0,0 l/m 0 min 0 min 251 W/m 0,0 km/h (0 Bft) 95,74 %
27.09.2020 12:12 11,8 C 13,9 C 11,1 C 100 % 1002,4 hPa 0,0 l/m 0 min 0 min 201 W/m 16,1 km/h (3 Bft) 93,62 %
27.09.2020 12:14 11,8 C 13,3 C 11,1 C 100 % 1002,4 hPa 0,0 l/m 0 min 0 min 153 W/m 12,9 km/h (3 Bft) 93,48 %
27.09.2020 12:16 11,8 C 13,3 C 11,1 C 100 % 1002,3 hPa 0,0 l/m 0 min 0 min 148 W/m 3,2 km/h (1 Bft) 93,62 %
27.09.2020 12:18 11,8 C 13,3 C 11,1 C 100 % 1002,4 hPa 0,0 l/m 0 min 0 min 165 W/m 6,4 km/h (2 Bft) 95,74 %
27.09.2020 12:20 11,8 C 13,3 C 11,1 C 100 % 1002,4 hPa 0,0 l/m 0 min 0 min 161 W/m 6,4 km/h (2 Bft) 95,74 %
27.09.2020 12:22 11,8 C 12,8 C 11,1 C 100 % 1002,4 hPa 0,0 l/m 0 min 0 min 158 W/m 3,2 km/h (1 Bft) 95,74 %
27.09.2020 12:24 11,8 C 12,8 C 11,1 C 100 % 1002,4 hPa 0,0 l/m 0 min 0 min 141 W/m 6,4 km/h (2 Bft) 91,30 %
27.09.2020 12:26 11,9 C 12,8 C 11,1 C 100 % 1002,4 hPa 0,0 l/m 0 min 0 min 119 W/m 6,4 km/h (2 Bft) 95,74 %
27.09.2020 12:28 11,8 C 12,8 C 11,1 C 100 % 1002,5 hPa 0,0 l/m 0 min 0 min 95 W/m 12,9 km/h (3 Bft) 97,87 %
27.09.2020 12:30 11,9 C 12,2 C 10,6 C 100 % 1002,5 hPa 0,0 l/m 0 min 0 min 87 W/m 6,4 km/h (2 Bft) 97,87 %
27.09.2020 12:32 11,8 C 12,2 C 10,6 C 100 % 1002,6 hPa 0,0 l/m 0 min 0 min 108 W/m 0,0 km/h (0 Bft) 97,87 %
27.09.2020 12:34 11,8 C 12,8 C 11,1 C 100 % 1002,6 hPa 0,0 l/m 0 min 0 min 130 W/m 0,0 km/h (0 Bft) 93,62 %
27.09.2020 12:36 11,8 C 12,8 C 11,1 C 100 % 1002,6 hPa 0,0 l/m 0 min 0 min 168 W/m 0,0 km/h (0 Bft) 97,83 %
27.09.2020 12:38 11,8 C 13,9 C 11,1 C 100 % 1002,6 hPa 0,0 l/m 0 min 0 min 277 W/m 0,0 km/h (0 Bft) 97,87 %
27.09.2020 12:40 11,8 C 13,9 C 11,7 C 100 % 1002,6 hPa 0,0 l/m 0 min 0 min 269 W/m 3,2 km/h (1 Bft) 97,87 %
27.09.2020 12:42 11,9 C 13,9 C 11,7 C 100 % 1002,7 hPa 0,0 l/m 0 min 0 min 215 W/m 0,0 km/h (0 Bft) 97,87 %
27.09.2020 12:44 11,9 C 13,9 C 11,1 C 100 % 1002,7 hPa 0,0 l/m 0 min 0 min 155 W/m 0,0 km/h (0 Bft) 97,87 %
27.09.2020 12:46 11,9 C 13,3 C 11,1 C 100 % 1002,7 hPa 0,0 l/m 0 min 0 min 132 W/m 0,0 km/h (0 Bft) 97,87 %
27.09.2020 12:48 11,9 C 12,8 C 11,1 C 100 % 1002,7 hPa 0,0 l/m 0 min 0 min 123 W/m 0,0 km/h (0 Bft) 97,87 %
27.09.2020 12:50 11,9 C 12,8 C 11,1 C 100 % 1002,7 hPa 0,0 l/m 0 min 0 min 127 W/m 0,0 km/h (0 Bft) 100,00 %
27.09.2020 12:52 11,9 C 12,8 C 11,1 C 100 % 1002,8 hPa 0,0 l/m 0 min 0 min 130 W/m 0,0 km/h (0 Bft) 100,00 %
27.09.2020 12:54 11,9 C 12,8 C 11,1 C 100 % 1002,8 hPa 0,0 l/m 0 min 0 min 141 W/m 3,2 km/h (1 Bft) 95,74 %
27.09.2020 12:56 11,9 C 13,3 C 11,1 C 100 % 1002,8 hPa 0,0 l/m 0 min 0 min 143 W/m 0,0 km/h (0 Bft) 97,87 %
27.09.2020 12:58 11,9 C 13,3 C 11,1 C 100 % 1002,8 hPa 0,0 l/m 0 min 0 min 155 W/m 0,0 km/h (0 Bft) 100,00 %
27.09.2020 13:00 11,9 C 13,3 C 11,7 C 100 % 1002,9 hPa 0,0 l/m 0 min 0 min 166 W/m 6,4 km/h (2 Bft) 100,00 %
27.09.2020 13:02 11,9 C 13,3 C 11,7 C 99 % 1002,9 hPa 0,0 l/m 0 min 0 min 195 W/m 3,2 km/h (1 Bft) 100,00 %
27.09.2020 13:04 11,9 C 13,9 C 11,7 C 99 % 1003,0 hPa 0,0 l/m 0 min 0 min 218 W/m 6,4 km/h (2 Bft) 97,87 %
27.09.2020 13:06 12,0 C 13,9 C 11,7 C 99 % 1003,0 hPa 0,0 l/m 0 min 0 min 229 W/m 3,2 km/h (1 Bft) 100,00 %
27.09.2020 13:08 12,1 C 13,9 C 11,7 C 99 % 1002,9 hPa 0,0 l/m 0 min 0 min 223 W/m 6,4 km/h (2 Bft) 100,00 %
27.09.2020 13:10 12,1 C 13,9 C 11,7 C 99 % 1003,0 hPa 0,0 l/m 0 min 0 min 206 W/m 6,4 km/h (2 Bft) 97,87 %
27.09.2020 13:12 12,1 C 14,4 C 11,7 C 99 % 1003,0 hPa 0,0 l/m 0 min 0 min 232 W/m 0,0 km/h (0 Bft) 97,83 %
27.09.2020 13:14 12,2 C 14,4 C 12,2 C 99 % 1003,0 hPa 0,0 l/m 0 min 0 min 241 W/m 0,0 km/h (0 Bft) 100,00 %
27.09.2020 13:16 12,3 C 14,4 C 11,7 C 99 % 1003,0 hPa 0,0 l/m 0 min 0 min 215 W/m 0,0 km/h (0 Bft) 100,00 %
27.09.2020 13:18 12,3 C 13,9 C 11,7 C 99 % 1003,1 hPa 0,0 l/m 0 min 0 min 162 W/m 0,0 km/h (0 Bft) 97,87 %
27.09.2020 13:20 12,3 C 13,9 C 11,7 C 99 % 1003,1 hPa 0,0 l/m 0 min 0 min 145 W/m 0,0 km/h (0 Bft) 100,00 %
27.09.2020 13:22 12,3 C 13,3 C 11,7 C 99 % 1003,2 hPa 0,0 l/m 0 min 0 min 141 W/m 0,0 km/h (0 Bft) 97,87 %
27.09.2020 13:24 12,3 C 13,3 C 11,7 C 99 % 1003,2 hPa 0,0 l/m 0 min 0 min 153 W/m 0,0 km/h (0 Bft) 97,83 %
27.09.2020 13:26 12,4 C 13,3 C 11,7 C 99 % 1003,2 hPa 0,0 l/m 0 min 0 min 162 W/m 0,0 km/h (0 Bft) 100,00 %
27.09.2020 13:28 12,4 C 13,9 C 11,7 C 99 % 1003,1 hPa 0,0 l/m 0 min 0 min 158 W/m 0,0 km/h (0 Bft) 100,00 %
27.09.2020 13:30 12,4 C 13,9 C 11,7 C 99 % 1003,3 hPa 0,0 l/m 0 min 0 min 167 W/m 0,0 km/h (0 Bft) 100,00 %
27.09.2020 13:32 12,4 C 13,9 C 11,7 C 98 % 1003,4 hPa 0,0 l/m 0 min 0 min 190 W/m 0,0 km/h (0 Bft) 95,74 %
27.09.2020 13:34 12,4 C 13,9 C 11,7 C 98 % 1003,4 hPa 0,0 l/m 0 min 0 min 197 W/m 0,0 km/h (0 Bft) 100,00 %
27.09.2020 13:36 12,4 C 14,4 C 11,7 C 98 % 1003,4 hPa 0,0 l/m 0 min 0 min 230 W/m 0,0 km/h (0 Bft) 97,87 %
27.09.2020 13:38 12,5 C 14,4 C 11,7 C 98 % 1003,4 hPa 0,0 l/m 0 min 0 min 231 W/m 0,0 km/h (0 Bft) 97,87 %
27.09.2020 13:40 12,6 C 14,4 C 11,7 C 98 % 1003,4 hPa 0,0 l/m 0 min 0 min 239 W/m 0,0 km/h (0 Bft) 95,74 %
27.09.2020 13:42 12,6 C 15,0 C 11,7 C 98 % 1003,4 hPa 0,0 l/m 0 min 0 min 237 W/m 0,0 km/h (0 Bft) 97,87 %
27.09.2020 13:44 12,6 C 15,6 C 12,2 C 98 % 1003,4 hPa 0,0 l/m 0 min 0 min 255 W/m 0,0 km/h (0 Bft) 93,62 %
27.09.2020 13:46 12,7 C 15,6 C 12,2 C 98 % 1003,5 hPa 0,0 l/m 0 min 0 min 291 W/m 0,0 km/h (0 Bft) 97,83 %
27.09.2020 13:48 12,7 C 15,6 C 12,2 C 97 % 1003,5 hPa 0,0 l/m 2 min 0 min 308 W/m 0,0 km/h (0 Bft) 97,87 %
27.09.2020 13:50 12,7 C 16,1 C 12,2 C 97 % 1003,5 hPa 0,0 l/m 2 min 0 min 346 W/m 0,0 km/h (0 Bft) 97,87 %
27.09.2020 13:52 12,8 C 16,1 C 12,2 C 97 % 1003,4 hPa 0,0 l/m 2 min 0 min 367 W/m 3,2 km/h (1 Bft) 97,87 %
27.09.2020 13:54 12,8 C 16,7 C 12,2 C 97 % 1003,5 hPa 0,0 l/m 2 min 0 min 355 W/m 0,0 km/h (0 Bft) 97,87 %
27.09.2020 13:56 12,9 C 16,1 C 12,2 C 96 % 1003,5 hPa 0,0 l/m 2 min 0 min 346 W/m 0,0 km/h (0 Bft) 97,87 %
27.09.2020 13:58 13,0 C 16,7 C 12,2 C 96 % 1003,5 hPa 0,0 l/m 2 min 0 min 345 W/m 0,0 km/h (0 Bft) 95,74 %
27.09.2020 14:00 13,1 C 16,7 C 12,2 C 96 % 1003,5 hPa 0,0 l/m 2 min 0 min 348 W/m 0,0 km/h (0 Bft) 97,83 %
27.09.2020 14:02 13,2 C 16,7 C 12,2 C 96 % 1003,5 hPa 0,0 l/m 2 min 0 min 354 W/m 0,0 km/h (0 Bft) 97,87 %
27.09.2020 14:04 13,3 C 17,2 C 12,8 C 96 % 1003,5 hPa 0,0 l/m 2 min 0 min 352 W/m 0,0 km/h (0 Bft) 93,62 %
27.09.2020 14:06 13,3 C 17,2 C 12,8 C 95 % 1003,6 hPa 0,0 l/m 2 min 0 min 349 W/m 3,2 km/h (1 Bft) 95,74 %
27.09.2020 14:08 13,4 C 16,7 C 12,8 C 95 % 1003,6 hPa 0,0 l/m 2 min 0 min 368 W/m 3,2 km/h (1 Bft) 95,74 %
27.09.2020 14:10 13,5 C 17,2 C 12,2 C 95 % 1003,7 hPa 0,0 l/m 2 min 0 min 409 W/m 6,4 km/h (2 Bft) 93,48 %
27.09.2020 14:12 13,6 C 17,2 C 12,8 C 94 % 1003,7 hPa 0,0 l/m 2 min 0 min 399 W/m 6,4 km/h (2 Bft) 95,74 %
27.09.2020 14:14 13,6 C 17,2 C 12,8 C 94 % 1003,7 hPa 0,0 l/m 2 min 0 min 357 W/m 0,0 km/h (0 Bft) 95,65 %
27.09.2020 14:16 13,7 C 17,2 C 12,8 C 94 % 1003,8 hPa 0,0 l/m 2 min 0 min 350 W/m 0,0 km/h (0 Bft) 93,62 %
27.09.2020 14:18 13,8 C 17,2 C 12,8 C 93 % 1003,8 hPa 0,0 l/m 2 min 0 min 350 W/m 3,2 km/h (1 Bft) 95,74 %
27.09.2020 14:20 13,9 C 17,2 C 12,8 C 93 % 1003,9 hPa 0,0 l/m 2 min 0 min 350 W/m 3,2 km/h (1 Bft) 95,74 %
27.09.2020 14:22 13,9 C 16,7 C 12,8 C 92 % 1003,9 hPa 0,0 l/m 2 min 0 min 339 W/m 0,0 km/h (0 Bft) 95,65 %
27.09.2020 14:24 14,0 C 17,2 C 12,8 C 92 % 1003,8 hPa 0,0 l/m 2 min 0 min 349 W/m 0,0 km/h (0 Bft) 95,74 %
27.09.2020 14:26 14,1 C 16,7 C 12,8 C 91 % 1003,8 hPa 0,0 l/m 2 min 0 min 336 W/m 6,4 km/h (2 Bft) 95,74 %
27.09.2020 14:28 14,1 C 16,7 C 12,8 C 91 % 1003,9 hPa 0,0 l/m 2 min 0 min 325 W/m 0,0 km/h (0 Bft) 95,74 %
27.09.2020 14:30 14,2 C 16,7 C 12,8 C 91 % 1003,9 hPa 0,0 l/m 2 min 0 min 333 W/m 0,0 km/h (0 Bft) 97,87 %
27.09.2020 14:32 14,3 C 16,7 C 12,8 C 90 % 1003,9 hPa 0,0 l/m 2 min 0 min 339 W/m 0,0 km/h (0 Bft) 95,74 %
27.09.2020 14:34 14,3 C 16,7 C 12,8 C 90 % 1003,9 hPa 0,0 l/m 2 min 0 min 314 W/m 0,0 km/h (0 Bft) 93,48 %
27.09.2020 14:36 14,3 C 16,7 C 12,8 C 90 % 1003,9 hPa 0,0 l/m 2 min 0 min 302 W/m 0,0 km/h (0 Bft) 95,74 %
27.09.2020 14:38 14,3 C 16,7 C 12,8 C 89 % 1004,0 hPa 0,0 l/m 2 min 0 min 319 W/m 0,0 km/h (0 Bft) 95,74 %
27.09.2020 14:40 14,4 C 16,1 C 12,8 C 89 % 1004,0 hPa 0,0 l/m 2 min 0 min 312 W/m 6,4 km/h (2 Bft) 91,49 %
27.09.2020 14:42 14,4 C 16,7 C 12,8 C 88 % 1004,0 hPa 0,0 l/m 2 min 0 min 294 W/m 3,2 km/h (1 Bft) 93,62 %
27.09.2020 14:44 14,4 C 16,1 C 12,8 C 88 % 1004,0 hPa 0,0 l/m 0 min 0 min 267 W/m 0,0 km/h (0 Bft) 95,65 %
27.09.2020 14:46 14,4 C 16,1 C 12,8 C 87 % 1004,1 hPa 0,0 l/m 0 min 0 min 252 W/m 0,0 km/h (0 Bft) 95,74 %
27.09.2020 14:48 14,6 C 16,1 C 12,8 C 88 % 1004,1 hPa 0,0 l/m 0 min 0 min 253 W/m 0,0 km/h (0 Bft) 97,87 %
27.09.2020 14:50 14,6 C 16,1 C 12,8 C 88 % 1004,2 hPa 0,0 l/m 0 min 0 min 248 W/m 6,4 km/h (2 Bft) 95,74 %
27.09.2020 14:52 14,6 C 15,6 C 12,8 C 88 % 1004,2 hPa 0,0 l/m 0 min 0 min 242 W/m 6,4 km/h (2 Bft) 95,74 %
27.09.2020 14:54 14,6 C 15,6 C 12,8 C 87 % 1004,2 hPa 0,0 l/m 0 min 0 min 245 W/m 3,2 km/h (1 Bft) 97,87 %
27.09.2020 14:56 14,6 C 15,6 C 12,8 C 87 % 1004,2 hPa 0,0 l/m 0 min 0 min 246 W/m 0,0 km/h (0 Bft) 97,83 %
27.09.2020 14:58 14,6 C 15,6 C 12,8 C 87 % 1004,2 hPa 0,0 l/m 0 min 0 min 248 W/m 6,4 km/h (2 Bft) 97,87 %
27.09.2020 15:00 14,6 C 15,6 C 12,8 C 86 % 1004,3 hPa 0,0 l/m 0 min 0 min 250 W/m 0,0 km/h (0 Bft) 97,87 %
27.09.2020 15:02 14,6 C 15,6 C 12,8 C 86 % 1004,3 hPa 0,0 l/m 0 min 0 min 242 W/m 0,0 km/h (0 Bft) 97,87 %
27.09.2020 15:04 14,6 C 15,6 C 12,8 C 86 % 1004,2 hPa 0,0 l/m 0 min 0 min 234 W/m 0,0 km/h (0 Bft) 95,74 %
27.09.2020 15:06 14,6 C 15,6 C 12,8 C 86 % 1004,2 hPa 0,0 l/m 0 min 0 min 237 W/m 0,0 km/h (0 Bft) 95,74 %
27.09.2020 15:08 14,6 C 15,6 C 12,8 C 86 % 1004,2 hPa 0,0 l/m 0 min 0 min 242 W/m 0,0 km/h (0 Bft) 97,83 %
27.09.2020 15:10 14,6 C 15,6 C 12,8 C 86 % 1004,2 hPa 0,0 l/m 0 min 0 min 245 W/m 0,0 km/h (0 Bft) 97,87 %
27.09.2020 15:12 14,6 C 15,6 C 12,8 C 86 % 1004,2 hPa 0,0 l/m 0 min 0 min 239 W/m 0,0 km/h (0 Bft) 97,87 %
27.09.2020 15:14 14,6 C 15,6 C 12,8 C 86 % 1004,2 hPa 0,0 l/m 0 min 0 min 234 W/m 0,0 km/h (0 Bft) 97,87 %
27.09.2020 15:16 14,6 C 15,6 C 12,8 C 86 % 1004,2 hPa 0,0 l/m 0 min 0 min 236 W/m 0,0 km/h (0 Bft) 97,87 %
27.09.2020 15:18 14,6 C 15,6 C 12,8 C 86 % 1004,2 hPa 0,0 l/m 0 min 0 min 236 W/m 0,0 km/h (0 Bft) 97,87 %
27.09.2020 15:20 14,6 C 15,6 C 12,8 C 86 % 1004,2 hPa 0,0 l/m 0 min 0 min 239 W/m 0,0 km/h (0 Bft) 97,83 %
27.09.2020 15:22 14,6 C 15,6 C 12,8 C 86 % 1004,3 hPa 0,0 l/m 0 min 0 min 237 W/m 0,0 km/h (0 Bft) 97,87 %
27.09.2020 15:24 14,6 C 15,6 C 12,8 C 86 % 1004,3 hPa 0,0 l/m 0 min 0 min 236 W/m 0,0 km/h (0 Bft) 100,00 %
27.09.2020 15:26 14,6 C 15,6 C 12,8 C 86 % 1004,3 hPa 0,0 l/m 0 min 0 min 236 W/m 0,0 km/h (0 Bft) 100,00 %
27.09.2020 15:28 14,6 C 16,1 C 12,8 C 86 % 1004,4 hPa 0,0 l/m 0 min 0 min 239 W/m 0,0 km/h (0 Bft) 100,00 %
27.09.2020 15:30 14,6 C 16,1 C 12,8 C 86 % 1004,4 hPa 0,0 l/m 0 min 0 min 245 W/m 0,0 km/h (0 Bft) 97,87 %
27.09.2020 15:32 14,7 C 16,1 C 12,8 C 86 % 1004,4 hPa 0,0 l/m 2 min 0 min 252 W/m 0,0 km/h (0 Bft) 100,00 %
27.09.2020 15:34 14,6 C 16,1 C 12,8 C 86 % 1004,4 hPa 0,0 l/m 2 min 0 min 257 W/m 0,0 km/h (0 Bft) 100,00 %
27.09.2020 15:36 14,7 C 16,1 C 12,8 C 85 % 1004,4 hPa 0,0 l/m 2 min 0 min 251 W/m 0,0 km/h (0 Bft) 100,00 %
27.09.2020 15:38 14,7 C 16,1 C 12,8 C 85 % 1004,5 hPa 0,0 l/m 2 min 0 min 248 W/m 0,0 km/h (0 Bft) 100,00 %
27.09.2020 15:40 14,7 C 16,1 C 12,8 C 85 % 1004,4 hPa 0,0 l/m 2 min 0 min 246 W/m 0,0 km/h (0 Bft) 100,00 %
27.09.2020 15:42 14,7 C 16,1 C 12,8 C 86 % 1004,5 hPa 0,0 l/m 0 min 0 min 239 W/m 0,0 km/h (0 Bft) 95,74 %
27.09.2020 15:44 14,7 C 16,1 C 12,8 C 86 % 1004,5 hPa 0,0 l/m 0 min 0 min 216 W/m 0,0 km/h (0 Bft) 100,00 %
27.09.2020 15:46 14,8 C 16,1 C 12,8 C 86 % 1004,5 hPa 0,0 l/m 0 min 0 min 180 W/m 0,0 km/h (0 Bft) 100,00 %
27.09.2020 15:48 14,8 C 15,6 C 12,8 C 86 % 1004,5 hPa 0,0 l/m 0 min 0 min 144 W/m 0,0 km/h (0 Bft) 100,00 %
27.09.2020 15:50 14,8 C 15,0 C 12,2 C 85 % 1004,6 hPa 0,0 l/m 0 min 0 min 136 W/m 0,0 km/h (0 Bft) 100,00 %
27.09.2020 15:52 14,7 C 15,0 C 12,2 C 85 % 1004,6 hPa 0,0 l/m 0 min 0 min 143 W/m 0,0 km/h (0 Bft) 100,00 %
27.09.2020 15:54 14,7 C 15,0 C 12,8 C 85 % 1004,6 hPa 0,0 l/m 0 min 0 min 172 W/m 0,0 km/h (0 Bft) 100,00 %
27.09.2020 15:56 14,7 C 15,0 C 12,8 C 85 % 1004,6 hPa 0,0 l/m 0 min 0 min 188 W/m 0,0 km/h (0 Bft) 100,00 %
27.09.2020 15:58 14,7 C 15,0 C 12,8 C 85 % 1004,6 hPa 0,0 l/m 0 min 0 min 182 W/m 0,0 km/h (0 Bft) 100,00 %
27.09.2020 16:00 14,7 C 15,0 C 12,8 C 85 % 1004,6 hPa 0,0 l/m 0 min 0 min 170 W/m 0,0 km/h (0 Bft) 100,00 %
27.09.2020 16:02 14,7 C 15,0 C 12,8 C 86 % 1004,6 hPa 0,0 l/m 0 min 0 min 152 W/m 0,0 km/h (0 Bft) 100,00 %
27.09.2020 16:04 14,7 C 15,0 C 12,2 C 86 % 1004,6 hPa 0,0 l/m 0 min 0 min 144 W/m 0,0 km/h (0 Bft) 97,87 %
27.09.2020 16:06 14,7 C 15,0 C 12,2 C 86 % 1004,6 hPa 0,0 l/m 0 min 0 min 144 W/m 0,0 km/h (0 Bft) 100,00 %
27.09.2020 16:08 14,7 C 15,0 C 12,2 C 86 % 1004,6 hPa 0,0 l/m 0 min 0 min 152 W/m 0,0 km/h (0 Bft) 100,00 %
27.09.2020 16:10 14,7 C 15,0 C 12,2 C 86 % 1004,7 hPa 0,0 l/m 0 min 0 min 160 W/m 0,0 km/h (0 Bft) 100,00 %
27.09.2020 16:12 14,7 C 15,0 C 12,2 C 86 % 1004,6 hPa 0,0 l/m 0 min 0 min 158 W/m 0,0 km/h (0 Bft) 97,87 %
27.09.2020 16:14 14,7 C 15,0 C 12,2 C 85 % 1004,7 hPa 0,0 l/m 0 min 0 min 129 W/m 0,0 km/h (0 Bft) 97,87 %
27.09.2020 16:16 14,7 C 14,4 C 12,2 C 85 % 1004,8 hPa 0,0 l/m 0 min 0 min 114 W/m 0,0 km/h (0 Bft) 97,87 %
27.09.2020 16:18 14,6 C 14,4 C 12,2 C 84 % 1004,8 hPa 0,0 l/m 0 min 0 min 121 W/m 0,0 km/h (0 Bft) 95,65 %
27.09.2020 16:20 14,6 C 14,4 C 12,2 C 84 % 1004,8 hPa 0,0 l/m 0 min 0 min 158 W/m 0,0 km/h (0 Bft) 97,87 %
27.09.2020 16:22 14,6 C 14,4 C 12,2 C 85 % 1004,8 hPa 0,0 l/m 0 min 0 min 139 W/m 0,0 km/h (0 Bft) 97,87 %
27.09.2020 16:24 14,6 C 15,0 C 12,2 C 85 % 1004,9 hPa 0,0 l/m 0 min 0 min 170 W/m 0,0 km/h (0 Bft) 97,87 %
27.09.2020 16:26 14,6 C 15,0 C 12,2 C 84 % 1004,9 hPa 0,0 l/m 2 min 0 min 205 W/m 0,0 km/h (0 Bft) 95,74 %
27.09.2020 16:28 14,6 C 16,7 C 13,3 C 85 % 1004,9 hPa 0,0 l/m 2 min 0 min 239 W/m 0,0 km/h (0 Bft) 97,87 %
27.09.2020 16:30 14,7 C 18,3 C 13,9 C 86 % 1004,9 hPa 0,0 l/m 2 min 0 min 327 W/m 0,0 km/h (0 Bft) 97,83 %
27.09.2020 16:32 14,8 C 18,9 C 13,9 C 86 % 1004,9 hPa 0,0 l/m 2 min 0 min 391 W/m 0,0 km/h (0 Bft) 97,87 %
27.09.2020 16:34 14,8 C 18,3 C 13,9 C 86 % 1004,9 hPa 0,0 l/m 2 min 0 min 248 W/m 0,0 km/h (0 Bft) 93,62 %
27.09.2020 16:36 14,9 C 17,8 C 13,9 C 86 % 1005,0 hPa 0,0 l/m 2 min 0 min 254 W/m 0,0 km/h (0 Bft) 97,87 %
27.09.2020 16:38 15,0 C 17,8 C 13,9 C 86 % 1005,0 hPa 0,0 l/m 2 min 0 min 294 W/m 3,2 km/h (1 Bft) 97,87 %
27.09.2020 16:40 15,1 C 17,8 C 13,9 C 86 % 1005,0 hPa 0,0 l/m 2 min 0 min 278 W/m 0,0 km/h (0 Bft) 93,48 %
27.09.2020 16:42 15,1 C 17,8 C 13,9 C 86 % 1005,0 hPa 0,0 l/m 2 min 0 min 288 W/m 0,0 km/h (0 Bft) 97,87 %
27.09.2020 16:44 15,2 C 17,2 C 13,9 C 86 % 1005,0 hPa 0,0 l/m 2 min 0 min 217 W/m 3,2 km/h (1 Bft) 97,87 %
27.09.2020 16:46 15,2 C 16,7 C 13,3 C 85 % 1005,1 hPa 0,0 l/m 0 min 0 min 136 W/m 6,4 km/h (2 Bft) 97,87 %
27.09.2020 16:48 15,2 C 16,1 C 13,3 C 84 % 1005,1 hPa 0,0 l/m 0 min 0 min 120 W/m 0,0 km/h (0 Bft) 97,87 %
27.09.2020 16:50 15,2 C 16,1 C 13,3 C 84 % 1005,1 hPa 0,0 l/m 0 min 0 min 158 W/m 0,0 km/h (0 Bft) 100,00 %
27.09.2020 16:52 15,2 C 17,8 C 15,0 C 83 % 1005,2 hPa 0,0 l/m 2 min 0 min 287 W/m 0,0 km/h (0 Bft) 100,00 %
27.09.2020 16:54 15,3 C 18,9 C 16,1 C 83 % 1005,2 hPa 0,0 l/m 2 min 0 min 428 W/m 0,0 km/h (0 Bft) 97,87 %
27.09.2020 16:56 15,3 C 18,9 C 16,7 C 83 % 1005,1 hPa 0,0 l/m 2 min 0 min 370 W/m 0,0 km/h (0 Bft) 97,87 %
27.09.2020 16:58 15,4 C 18,9 C 16,1 C 83 % 1005,2 hPa 0,0 l/m 2 min 0 min 329 W/m 0,0 km/h (0 Bft) 97,87 %
27.09.2020 17:00 15,4 C 18,9 C 15,0 C 83 % 1005,2 hPa 0,0 l/m 2 min 0 min 280 W/m 0,0 km/h (0 Bft) 95,74 %
27.09.2020 17:02 15,5 C 17,8 C 14,4 C 84 % 1005,2 hPa 0,0 l/m 2 min 0 min 217 W/m 0,0 km/h (0 Bft) 95,65 %
27.09.2020 17:04 15,6 C 17,8 C 14,4 C 83 % 1005,2 hPa 0,0 l/m 2 min 0 min 265 W/m 0,0 km/h (0 Bft) 97,87 %
27.09.2020 17:06 15,6 C 17,8 C 13,9 C 82 % 1005,2 hPa 0,0 l/m 2 min 0 min 274 W/m 0,0 km/h (0 Bft) 97,87 %
27.09.2020 17:08 15,6 C 17,8 C 13,9 C 82 % 1005,2 hPa 0,0 l/m 2 min 0 min 311 W/m 0,0 km/h (0 Bft) 97,87 %
27.09.2020 17:10 15,7 C 17,8 C 13,9 C 82 % 1005,2 hPa 0,0 l/m 2 min 0 min 288 W/m 0,0 km/h (0 Bft) 97,87 %
27.09.2020 17:12 15,7 C 17,2 C 13,3 C 82 % 1005,2 hPa 0,0 l/m 2 min 0 min 230 W/m 0,0 km/h (0 Bft) 97,87 %
27.09.2020 17:14 15,7 C 16,7 C 13,3 C 81 % 1005,3 hPa 0,0 l/m 2 min 0 min 165 W/m 3,2 km/h (1 Bft) 97,83 %
27.09.2020 17:16 15,7 C 16,1 C 13,3 C 81 % 1005,3 hPa 0,0 l/m 0 min 0 min 145 W/m 0,0 km/h (0 Bft) 97,87 %
27.09.2020 17:18 15,7 C 15,6 C 13,3 C 81 % 1005,3 hPa 0,0 l/m 0 min 0 min 135 W/m 0,0 km/h (0 Bft) 97,87 %
27.09.2020 17:20 15,7 C 15,6 C 13,3 C 80 % 1005,4 hPa 0,0 l/m 0 min 0 min 139 W/m 0,0 km/h (0 Bft) 95,74 %
27.09.2020 17:22 15,7 C 15,6 C 12,8 C 80 % 1005,4 hPa 0,0 l/m 0 min 0 min 138 W/m 0,0 km/h (0 Bft) 97,87 %
27.09.2020 17:24 15,7 C 15,6 C 12,8 C 80 % 1005,4 hPa 0,0 l/m 0 min 0 min 140 W/m 0,0 km/h (0 Bft) 95,74 %
27.09.2020 17:26 15,7 C 15,0 C 12,8 C 80 % 1005,4 hPa 0,0 l/m 0 min 0 min 136 W/m 0,0 km/h (0 Bft) 97,83 %
27.09.2020 17:28 15,7 C 15,6 C 12,8 C 81 % 1005,4 hPa 0,0 l/m 2 min 0 min 144 W/m 0,0 km/h (0 Bft) 97,87 %
27.09.2020 17:30 15,7 C 15,0 C 12,8 C 81 % 1005,4 hPa 0,0 l/m 0 min 0 min 132 W/m 0,0 km/h (0 Bft) 97,87 %
27.09.2020 17:32 15,7 C 15,0 C 12,8 C 81 % 1005,4 hPa 0,0 l/m 0 min 0 min 120 W/m 0,0 km/h (0 Bft) 97,87 %
27.09.2020 17:34 15,7 C 15,0 C 12,8 C 81 % 1005,4 hPa 0,0 l/m 2 min 0 min 136 W/m 0,0 km/h (0 Bft) 100,00 %
27.09.2020 17:36 15,6 C 15,0 C 12,8 C 81 % 1005,3 hPa 0,0 l/m 0 min 0 min 126 W/m 0,0 km/h (0 Bft) 97,87 %
27.09.2020 17:38 15,6 C 15,0 C 12,8 C 81 % 1005,3 hPa 0,0 l/m 0 min 0 min 108 W/m 0,0 km/h (0 Bft) 97,83 %
27.09.2020 17:40 15,6 C 14,4 C 12,8 C 81 % 1005,4 hPa 0,0 l/m 0 min 0 min 87 W/m 0,0 km/h (0 Bft) 100,00 %
27.09.2020 17:42 15,6 C 14,4 C 12,8 C 81 % 1005,4 hPa 0,0 l/m 0 min 0 min 73 W/m 0,0 km/h (0 Bft) 95,74 %
27.09.2020 17:44 15,5 C 14,4 C 12,8 C 80 % 1005,5 hPa 0,0 l/m 0 min 0 min 61 W/m 0,0 km/h (0 Bft) 97,87 %
27.09.2020 17:46 15,4 C 13,9 C 12,8 C 80 % 1005,5 hPa 0,0 l/m 0 min 0 min 51 W/m 0,0 km/h (0 Bft) 97,87 %
27.09.2020 17:48 15,4 C 13,9 C 12,8 C 80 % 1005,6 hPa 0,0 l/m 0 min 0 min 47 W/m 0,0 km/h (0 Bft) 97,87 %
27.09.2020 17:50 15,4 C 13,9 C 12,2 C 80 % 1005,5 hPa 0,0 l/m 0 min 0 min 47 W/m 0,0 km/h (0 Bft) 97,83 %
27.09.2020 17:52 15,3 C 13,9 C 12,2 C 80 % 1005,6 hPa 0,0 l/m 0 min 0 min 48 W/m 0,0 km/h (0 Bft) 97,87 %
27.09.2020 17:54 15,3 C 13,9 C 12,2 C 80 % 1005,6 hPa 0,0 l/m 0 min 0 min 52 W/m 0,0 km/h (0 Bft) 97,87 %
27.09.2020 17:56 15,3 C 13,9 C 12,2 C 80 % 1005,7 hPa 0,0 l/m 0 min 0 min 59 W/m 0,0 km/h (0 Bft) 95,74 %
27.09.2020 17:58 15,2 C 13,9 C 12,2 C 80 % 1005,7 hPa 0,0 l/m 0 min 0 min 61 W/m 0,0 km/h (0 Bft) 93,62 %
27.09.2020 18:00 15,2 C 13,9 C 12,2 C 80 % 1005,7 hPa 0,0 l/m 0 min 0 min 60 W/m 0,0 km/h (0 Bft) 97,87 %
27.09.2020 18:02 15,2 C 13,9 C 12,2 C 80 % 1005,8 hPa 0,0 l/m 0 min 0 min 62 W/m 0,0 km/h (0 Bft) 97,83 %
27.09.2020 18:04 15,1 C 13,9 C 12,2 C 80 % 1005,7 hPa 0,0 l/m 0 min 0 min 66 W/m 0,0 km/h (0 Bft) 97,87 %
27.09.2020 18:08 15,0 C 13,9 C 12,2 C 80 % 1005,7 hPa 0,0 l/m 0 min 0 min 67 W/m 0,0 km/h (0 Bft) 96,81 %
27.09.2020 18:10 15,0 C 13,9 C 12,2 C 80 % 1005,8 hPa 0,0 l/m 0 min 0 min 77 W/m 0,0 km/h (0 Bft) 97,87 %
27.09.2020 18:12 14,9 C 13,9 C 12,2 C 80 % 1005,8 hPa 0,0 l/m 0 min 0 min 83 W/m 0,0 km/h (0 Bft) 97,83 %
27.09.2020 18:14 14,9 C 13,9 C 12,2 C 80 % 1005,8 hPa 0,0 l/m 2 min 0 min 84 W/m 0,0 km/h (0 Bft) 97,87 %
27.09.2020 18:16 14,9 C 13,9 C 12,2 C 80 % 1005,8 hPa 0,0 l/m 2 min 0 min 87 W/m 0,0 km/h (0 Bft) 97,87 %
27.09.2020 18:18 14,8 C 13,9 C 12,2 C 81 % 1005,9 hPa 0,0 l/m 2 min 0 min 85 W/m 0,0 km/h (0 Bft) 97,87 %
27.09.2020 18:20 14,8 C 13,9 C 12,2 C 81 % 1005,9 hPa 0,0 l/m 2 min 0 min 80 W/m 0,0 km/h (0 Bft) 97,87 %
27.09.2020 18:22 14,8 C 13,9 C 12,2 C 81 % 1005,9 hPa 0,0 l/m 2 min 0 min 74 W/m 0,0 km/h (0 Bft) 97,87 %
27.09.2020 18:24 14,8 C 13,9 C 12,2 C 81 % 1005,9 hPa 0,0 l/m 2 min 0 min 70 W/m 0,0 km/h (0 Bft) 97,83 %
27.09.2020 18:26 14,8 C 13,9 C 12,2 C 82 % 1006,0 hPa 0,0 l/m 0 min 0 min 63 W/m 0,0 km/h (0 Bft) 97,87 %
27.09.2020 18:28 14,7 C 13,9 C 12,2 C 82 % 1006,0 hPa 0,0 l/m 0 min 0 min 60 W/m 0,0 km/h (0 Bft) 95,74 %
27.09.2020 18:30 14,7 C 13,9 C 12,2 C 82 % 1006,0 hPa 0,0 l/m 2 min 0 min 63 W/m 0,0 km/h (0 Bft) 93,62 %
27.09.2020 18:32 14,7 C 13,9 C 12,2 C 82 % 1006,0 hPa 0,0 l/m 2 min 0 min 62 W/m 0,0 km/h (0 Bft) 91,49 %
27.09.2020 18:34 14,7 C 13,9 C 12,2 C 82 % 1006,0 hPa 0,0 l/m 2 min 0 min 55 W/m 0,0 km/h (0 Bft) 95,74 %
27.09.2020 18:36 14,7 C 13,9 C 12,2 C 82 % 1006,1 hPa 0,0 l/m 2 min 0 min 52 W/m 0,0 km/h (0 Bft) 91,30 %
27.09.2020 18:38 14,6 C 13,9 C 12,2 C 82 % 1006,2 hPa 0,0 l/m 2 min 0 min 51 W/m 0,0 km/h (0 Bft) 95,74 %
27.09.2020 18:40 14,6 C 13,9 C 12,2 C 82 % 1006,2 hPa 0,0 l/m 2 min 0 min 48 W/m 0,0 km/h (0 Bft) 95,74 %
27.09.2020 18:42 14,6 C 13,9 C 12,2 C 82 % 1006,2 hPa 0,0 l/m 2 min 0 min 46 W/m 0,0 km/h (0 Bft) 95,74 %
27.09.2020 18:44 14,6 C 13,9 C 12,2 C 82 % 1006,1 hPa 0,0 l/m 2 min 0 min 46 W/m 0,0 km/h (0 Bft) 95,74 %
27.09.2020 18:46 14,6 C 13,9 C 12,2 C 82 % 1006,2 hPa 0,0 l/m 2 min 0 min 49 W/m 0,0 km/h (0 Bft) 95,74 %
27.09.2020 18:48 14,6 C 13,3 C 12,2 C 82 % 1006,2 hPa 0,0 l/m 2 min 0 min 43 W/m 0,0 km/h (0 Bft) 97,83 %
27.09.2020 18:50 14,5 C 13,3 C 12,2 C 82 % 1006,3 hPa 0,0 l/m 2 min 0 min 36 W/m 0,0 km/h (0 Bft) 98,00 %
27.09.2020 18:52 14,5 C 13,3 C 11,7 C 82 % 1006,2 hPa 0,0 l/m 2 min 0 min 33 W/m 0,0 km/h (0 Bft) 93,62 %
27.09.2020 18:54 14,4 C 13,3 C 11,7 C 82 % 1006,3 hPa 0,0 l/m 2 min 0 min 30 W/m 0,0 km/h (0 Bft) 97,87 %
27.09.2020 18:56 14,4 C 13,3 C 11,7 C 82 % 1006,3 hPa 0,0 l/m 2 min 0 min 28 W/m 0,0 km/h (0 Bft) 97,87 %
27.09.2020 18:58 14,4 C 13,3 C 11,7 C 82 % 1006,3 hPa 0,0 l/m 2 min 0 min 23 W/m 0,0 km/h (0 Bft) 97,87 %
27.09.2020 19:00 14,3 C 12,8 C 11,7 C 81 % 1006,4 hPa 0,0 l/m 0 min 0 min 18 W/m 0,0 km/h (0 Bft) 95,65 %
27.09.2020 19:02 14,3 C 12,8 C 11,7 C 81 % 1006,4 hPa 0,0 l/m 0 min 0 min 15 W/m 0,0 km/h (0 Bft) 95,74 %
27.09.2020 19:04 14,3 C 12,8 C 11,7 C 81 % 1006,4 hPa 0,0 l/m 0 min 0 min 12 W/m 0,0 km/h (0 Bft) 97,87 %
27.09.2020 19:06 14,3 C 12,8 C 11,7 C 81 % 1006,4 hPa 0,0 l/m 0 min 0 min 9 W/m 0,0 km/h (0 Bft) 97,87 %
27.09.2020 19:08 14,3 C 12,8 C 11,7 C 81 % 1006,4 hPa 0,0 l/m 0 min 0 min 7 W/m 0,0 km/h (0 Bft) 97,87 %
27.09.2020 19:10 14,3 C 12,2 C 11,1 C 81 % 1006,4 hPa 0,0 l/m 0 min 0 min 6 W/m 0,0 km/h (0 Bft) 95,65 %
27.09.2020 19:12 14,3 C 12,2 C 11,1 C 81 % 1006,4 hPa 0,0 l/m 0 min 0 min 5 W/m 0,0 km/h (0 Bft) 95,74 %
27.09.2020 19:14 14,3 C 12,2 C 11,1 C 81 % 1006,5 hPa 0,0 l/m 0 min 0 min 3 W/m 0,0 km/h (0 Bft) 100,00 %
27.09.2020 19:16 14,2 C 12,2 C 11,1 C 81 % 1006,5 hPa 0,0 l/m 0 min 0 min 0 W/m 0,0 km/h (0 Bft) 100,00 %
27.09.2020 19:18 14,2 C 11,7 C 10,6 C 81 % 1006,5 hPa 0,0 l/m 0 min 0 min 0 W/m 0,0 km/h (0 Bft) 93,62 %
27.09.2020 19:20 14,1 C 11,7 C 10,6 C 81 % 1006,6 hPa 0,0 l/m 0 min 0 min 0 W/m 0,0 km/h (0 Bft) 100,00 %
27.09.2020 19:22 14,1 C 11,7 C 10,6 C 81 % 1006,6 hPa 0,0 l/m 0 min 0 min 0 W/m 0,0 km/h (0 Bft) 100,00 %
27.09.2020 19:24 14,0 C 11,7 C 10,6 C 81 % 1006,6 hPa 0,0 l/m 0 min 0 min 0 W/m 0,0 km/h (0 Bft) 97,87 %
27.09.2020 19:26 13,9 C 11,7 C 10,6 C 82 % 1006,7 hPa 0,0 l/m 0 min 0 min 0 W/m 0,0 km/h (0 Bft) 100,00 %
27.09.2020 19:28 13,9 C 11,1 C 10,6 C 82 % 1006,6 hPa 0,0 l/m 0 min 0 min 0 W/m 0,0 km/h (0 Bft) 97,87 %
27.09.2020 19:30 13,9 C 11,1 C 10,6 C 82 % 1006,7 hPa 0,0 l/m 0 min 0 min 0 W/m 0,0 km/h (0 Bft) 97,87 %
27.09.2020 19:32 13,8 C 11,1 C 10,6 C 82 % 1006,7 hPa 0,0 l/m 0 min 0 min 0 W/m 0,0 km/h (0 Bft) 97,83 %
27.09.2020 19:34 13,7 C 11,1 C 10,0 C 82 % 1006,7 hPa 0,0 l/m 0 min 0 min 0 W/m 0,0 km/h (0 Bft) 97,87 %
27.09.2020 19:36 13,7 C 10,6 C 10,0 C 83 % 1006,7 hPa 0,0 l/m 0 min 0 min 0 W/m 0,0 km/h (0 Bft) 97,87 %
27.09.2020 19:38 13,6 C 10,6 C 10,0 C 83 % 1006,7 hPa 0,0 l/m 0 min 0 min 0 W/m 0,0 km/h (0 Bft) 97,87 %
27.09.2020 19:40 13,6 C 10,6 C 10,0 C 83 % 1006,8 hPa 0,0 l/m 0 min 0 min 0 W/m 0,0 km/h (0 Bft) 95,74 %
27.09.2020 19:42 13,4 C 10,6 C 10,0 C 83 % 1006,9 hPa 0,0 l/m 0 min 0 min 0 W/m 0,0 km/h (0 Bft) 95,74 %
27.09.2020 19:44 13,4 C 10,6 C 10,0 C 84 % 1006,8 hPa 0,0 l/m 0 min 0 min 0 W/m 0,0 km/h (0 Bft) 97,83 %
27.09.2020 19:46 13,3 C 10,6 C 10,0 C 84 % 1006,9 hPa 0,0 l/m 0 min 0 min 0 W/m 0,0 km/h (0 Bft) 97,87 %
27.09.2020 19:48 13,2 C 10,6 C 10,0 C 84 % 1006,9 hPa 0,0 l/m 0 min 0 min 0 W/m 0,0 km/h (0 Bft) 97,87 %
27.09.2020 19:50 13,2 C 10,6 C 10,0 C 84 % 1006,9 hPa 0,0 l/m 0 min 0 min 0 W/m 0,0 km/h (0 Bft) 97,87 %
27.09.2020 19:52 13,1 C 10,0 C 10,0 C 85 % 1006,9 hPa 0,0 l/m 0 min 0 min 0 W/m 0,0 km/h (0 Bft) 95,74 %
27.09.2020 19:54 13,1 C 10,0 C 10,0 C 85 % 1006,9 hPa 0,0 l/m 0 min 0 min 0 W/m 0,0 km/h (0 Bft) 97,87 %
27.09.2020 19:56 13,0 C 10,6 C 10,0 C 85 % 1006,9 hPa 0,0 l/m 0 min 0 min 0 W/m 0,0 km/h (0 Bft) 97,83 %
27.09.2020 19:58 12,9 C 10,6 C 10,0 C 85 % 1006,9 hPa 0,0 l/m 0 min 0 min 0 W/m 0,0 km/h (0 Bft) 95,74 %
27.09.2020 20:00 12,8 C 10,6 C 10,0 C 85 % 1006,9 hPa 0,0 l/m 0 min 0 min 0 W/m 0,0 km/h (0 Bft) 97,87 %
27.09.2020 20:02 12,8 C 10,6 C 9,4 C 85 % 1006,9 hPa 0,0 l/m 0 min 0 min 0 W/m 0,0 km/h (0 Bft) 95,74 %
27.09.2020 20:04 12,7 C 10,6 C 9,4 C 86 % 1007,0 hPa 0,0 l/m 0 min 0 min 0 W/m 0,0 km/h (0 Bft) 97,87 %
27.09.2020 20:06 12,7 C 10,6 C 9,4 C 86 % 1006,9 hPa 0,0 l/m 0 min 0 min 0 W/m 0,0 km/h (0 Bft) 97,87 %
27.09.2020 20:08 12,6 C 10,6 C 9,4 C 86 % 1006,9 hPa 0,0 l/m 0 min 0 min 0 W/m 0,0 km/h (0 Bft) 97,83 %
27.09.2020 20:10 12,6 C 10,6 C 9,4 C 86 % 1006,9 hPa 0,0 l/m 0 min 0 min 0 W/m 0,0 km/h (0 Bft) 95,74 %
27.09.2020 20:12 12,5 C 10,6 C 9,4 C 86 % 1006,9 hPa 0,0 l/m 0 min 0 min 0 W/m 0,0 km/h (0 Bft) 97,87 %
27.09.2020 20:14 12,5 C 10,6 C 9,4 C 86 % 1006,9 hPa 0,0 l/m 0 min 0 min 0 W/m 0,0 km/h (0 Bft) 97,87 %
27.09.2020 20:16 12,4 C 10,0 C 9,4 C 86 % 1006,9 hPa 0,0 l/m 0 min 0 min 0 W/m 0,0 km/h (0 Bft) 97,87 %
27.09.2020 20:18 12,4 C 10,0 C 9,4 C 87 % 1007,0 hPa 0,0 l/m 0 min 0 min 0 W/m 0,0 km/h (0 Bft) 95,74 %
27.09.2020 20:20 12,3 C 10,0 C 9,4 C 86 % 1007,0 hPa 0,0 l/m 0 min 0 min 0 W/m 0,0 km/h (0 Bft) 97,83 %
27.09.2020 20:22 12,3 C 10,0 C 9,4 C 87 % 1007,0 hPa 0,0 l/m 0 min 0 min 0 W/m 0,0 km/h (0 Bft) 97,87 %
27.09.2020 20:24 12,2 C 10,0 C 9,4 C 87 % 1007,0 hPa 0,0 l/m 0 min 0 min 0 W/m 0,0 km/h (0 Bft) 95,74 %
27.09.2020 20:26 12,2 C 10,0 C 9,4 C 87 % 1007,0 hPa 0,0 l/m 0 min 0 min 0 W/m 0,0 km/h (0 Bft) 95,74 %
27.09.2020 20:28 12,2 C 10,0 C 9,4 C 87 % 1007,0 hPa 0,0 l/m 0 min 0 min 0 W/m 0,0 km/h (0 Bft) 95,74 %
27.09.2020 20:30 12,1 C 9,4 C 9,4 C 87 % 1007,0 hPa 0,0 l/m 0 min 0 min 0 W/m 0,0 km/h (0 Bft) 97,83 %
27.09.2020 20:32 12,1 C 9,4 C 8,9 C 87 % 1007,0 hPa 0,0 l/m 0 min 0 min 0 W/m 0,0 km/h (0 Bft) 97,92 %
27.09.2020 20:34 12,0 C 9,4 C 8,9 C 87 % 1007,0 hPa 0,0 l/m 0 min 0 min 0 W/m 0,0 km/h (0 Bft) 95,74 %
27.09.2020 20:36 11,9 C 9,4 C 8,9 C 87 % 1007,0 hPa 0,0 l/m 0 min 0 min 0 W/m 0,0 km/h (0 Bft) 97,87 %
27.09.2020 20:38 11,9 C 9,4 C 8,9 C 88 % 1007,1 hPa 0,0 l/m 0 min 0 min 0 W/m 0,0 km/h (0 Bft) 97,87 %
27.09.2020 20:40 11,8 C 9,4 C 8,9 C 88 % 1007,0 hPa 0,0 l/m 0 min 0 min 0 W/m 0,0 km/h (0 Bft) 97,87 %
27.09.2020 20:42 11,8 C 9,4 C 8,9 C 88 % 1007,1 hPa 0,0 l/m 0 min 0 min 0 W/m 0,0 km/h (0 Bft) 95,65 %
27.09.2020 20:44 11,8 C 9,4 C 8,9 C 88 % 1007,1 hPa 0,0 l/m 0 min 0 min 0 W/m 0,0 km/h (0 Bft) 93,62 %
27.09.2020 20:46 11,7 C 9,4 C 8,9 C 88 % 1007,1 hPa 0,0 l/m 0 min 0 min 0 W/m 0,0 km/h (0 Bft) 97,87 %
27.09.2020 20:48 11,7 C 9,4 C 8,9 C 88 % 1007,0 hPa 0,0 l/m 0 min 0 min 0 W/m 0,0 km/h (0 Bft) 97,87 %
27.09.2020 20:50 11,6 C 9,4 C 8,9 C 88 % 1007,1 hPa 0,0 l/m 0 min 0 min 0 W/m 0,0 km/h (0 Bft) 97,87 %
27.09.2020 20:52 11,6 C 8,9 C 8,9 C 88 % 1007,0 hPa 0,0 l/m 0 min 0 min 0 W/m 0,0 km/h (0 Bft) 97,30 %
27.09.2020 20:54 11,6 C 9,4 C 8,9 C 88 % 1007,0 hPa 0,0 l/m 0 min 0 min 0 W/m 0,0 km/h (0 Bft) 93,62 %
27.09.2020 20:56 11,5 C 9,4 C 8,9 C 88 % 1007,0 hPa 0,0 l/m 0 min 0 min 0 W/m 0,0 km/h (0 Bft) 95,74 %
27.09.2020 20:58 11,4 C 9,4 C 8,9 C 88 % 1007,1 hPa 0,0 l/m 0 min 0 min 0 W/m 0,0 km/h (0 Bft) 97,87 %
27.09.2020 21:00 11,4 C 9,4 C 8,9 C 88 % 1007,1 hPa 0,0 l/m 0 min 0 min 0 W/m 0,0 km/h (0 Bft) 100,00 %
27.09.2020 21:02 11,4 C 9,4 C 8,9 C 88 % 1007,1 hPa 0,0 l/m 0 min 0 min 0 W/m 0,0 km/h (0 Bft) 97,87 %
27.09.2020 21:04 11,3 C 9,4 C 8,9 C 88 % 1007,1 hPa 0,0 l/m 0 min 0 min 0 W/m 0,0 km/h (0 Bft) 100,00 %
27.09.2020 21:06 11,3 C 9,4 C 8,9 C 88 % 1007,2 hPa 0,0 l/m 0 min 0 min 0 W/m 0,0 km/h (0 Bft) 97,87 %
27.09.2020 21:08 11,3 C 9,4 C 8,9 C 89 % 1007,2 hPa 0,0 l/m 0 min 0 min 0 W/m 0,0 km/h (0 Bft) 100,00 %
27.09.2020 21:10 11,3 C 9,4 C 8,9 C 89 % 1007,2 hPa 0,0 l/m 0 min 0 min 0 W/m 0,0 km/h (0 Bft) 100,00 %
27.09.2020 21:12 11,2 C 9,4 C 8,9 C 89 % 1007,3 hPa 0,0 l/m 0 min 0 min 0 W/m 0,0 km/h (0 Bft) 100,00 %
27.09.2020 21:14 11,2 C 9,4 C 8,9 C 89 % 1007,3 hPa 0,0 l/m 0 min 0 min 0 W/m 0,0 km/h (0 Bft) 100,00 %
27.09.2020 21:16 11,2 C 9,4 C 8,9 C 89 % 1007,4 hPa 0,0 l/m 0 min 0 min 0 W/m 0,0 km/h (0 Bft) 100,00 %
27.09.2020 21:18 11,1 C 9,4 C 8,9 C 89 % 1007,3 hPa 0,0 l/m 0 min 0 min 0 W/m 0,0 km/h (0 Bft) 100,00 %
27.09.2020 21:20 11,1 C 9,4 C 8,9 C 89 % 1007,3 hPa 0,0 l/m 0 min 0 min 0 W/m 0,0 km/h (0 Bft) 97,87 %
27.09.2020 21:22 11,1 C 9,4 C 8,9 C 89 % 1007,3 hPa 0,0 l/m 0 min 0 min 0 W/m 0,0 km/h (0 Bft) 100,00 %
27.09.2020 21:24 11,1 C 9,4 C 8,9 C 89 % 1007,3 hPa 0,0 l/m 0 min 0 min 0 W/m 0,0 km/h (0 Bft) 97,87 %
27.09.2020 21:26 11,1 C 9,4 C 8,9 C 89 % 1007,3 hPa 0,0 l/m 0 min 0 min 0 W/m 0,0 km/h (0 Bft) 97,87 %
27.09.2020 21:28 11,0 C 9,4 C 8,9 C 89 % 1007,3 hPa 0,0 l/m 0 min 0 min 0 W/m 0,0 km/h (0 Bft) 97,87 %
27.09.2020 21:30 11,0 C 9,4 C 8,9 C 89 % 1007,3 hPa 0,0 l/m 0 min 0 min 0 W/m 0,0 km/h (0 Bft) 97,87 %
27.09.2020 21:32 10,9 C 9,4 C 8,9 C 89 % 1007,4 hPa 0,0 l/m 0 min 0 min 0 W/m 0,0 km/h (0 Bft) 95,74 %
27.09.2020 21:34 10,9 C 9,4 C 8,9 C 89 % 1007,5 hPa 0,0 l/m 0 min 0 min 0 W/m 0,0 km/h (0 Bft) 97,83 %
27.09.2020 21:36 10,9 C 8,9 C 8,9 C 89 % 1007,5 hPa 0,0 l/m 0 min 0 min 0 W/m 0,0 km/h (0 Bft) 97,87 %
27.09.2020 21:38 10,9 C 8,9 C 8,9 C 89 % 1007,5 hPa 0,0 l/m 0 min 0 min 0 W/m 0,0 km/h (0 Bft) 95,74 %
27.09.2020 21:40 10,9 C 8,9 C 8,9 C 90 % 1007,5 hPa 0,0 l/m 0 min 0 min 0 W/m 0,0 km/h (0 Bft) 97,87 %
27.09.2020 21:42 10,8 C 8,9 C 8,3 C 90 % 1007,5 hPa 0,0 l/m 0 min 0 min 0 W/m 0,0 km/h (0 Bft) 97,87 %
27.09.2020 21:44 10,8 C 8,9 C 8,3 C 89 % 1007,5 hPa 0,0 l/m 0 min 0 min 0 W/m 0,0 km/h (0 Bft) 97,87 %
27.09.2020 21:46 10,8 C 8,9 C 8,3 C 89 % 1007,5 hPa 0,0 l/m 0 min 0 min 0 W/m 0,0 km/h (0 Bft) 97,83 %
27.09.2020 21:48 10,8 C 8,9 C 8,3 C 90 % 1007,5 hPa 0,0 l/m 0 min 0 min 0 W/m 0,0 km/h (0 Bft) 97,87 %
27.09.2020 21:50 10,8 C 8,9 C 8,3 C 90 % 1007,6 hPa 0,0 l/m 0 min 0 min 0 W/m 0,0 km/h (0 Bft) 95,74 %
27.09.2020 21:52 10,7 C 8,9 C 8,3 C 90 % 1007,6 hPa 0,0 l/m 0 min 0 min 0 W/m 0,0 km/h (0 Bft) 97,87 %
27.09.2020 21:54 10,7 C 8,9 C 8,3 C 90 % 1007,6 hPa 0,0 l/m 0 min 0 min 0 W/m 0,0 km/h (0 Bft) 97,87 %
27.09.2020 21:56 10,7 C 8,9 C 8,3 C 90 % 1007,6 hPa 0,0 l/m 0 min 0 min 0 W/m 0,0 km/h (0 Bft) 97,87 %
27.09.2020 21:58 10,7 C 8,9 C 8,3 C 90 % 1007,7 hPa 0,0 l/m 0 min 0 min 0 W/m 0,0 km/h (0 Bft) 97,83 %
27.09.2020 22:00 10,6 C 8,3 C 8,3 C 90 % 1007,6 hPa 0,0 l/m 0 min 0 min 0 W/m 0,0 km/h (0 Bft) 97,87 %
27.09.2020 22:02 10,6 C 8,3 C 8,3 C 90 % 1007,6 hPa 0,0 l/m 0 min 0 min 0 W/m 0,0 km/h (0 Bft) 97,87 %
27.09.2020 22:04 10,6 C 8,3 C 8,3 C 90 % 1007,6 hPa 0,0 l/m 0 min 0 min 0 W/m 0,0 km/h (0 Bft) 97,87 %
27.09.2020 22:06 10,6 C 8,3 C 8,3 C 90 % 1007,6 hPa 0,0 l/m 0 min 0 min 0 W/m 0,0 km/h (0 Bft) 95,74 %
27.09.2020 22:08 10,5 C 8,9 C 8,3 C 90 % 1007,6 hPa 0,0 l/m 0 min 0 min 0 W/m 0,0 km/h (0 Bft) 97,87 %
27.09.2020 22:10 10,5 C 8,9 C 8,3 C 90 % 1007,7 hPa 0,0 l/m 0 min 0 min 0 W/m 6,4 km/h (2 Bft) 97,83 %
27.09.2020 22:12 10,5 C 9,4 C 8,3 C 90 % 1007,7 hPa 0,0 l/m 0 min 0 min 0 W/m 0,0 km/h (0 Bft) 97,87 %
27.09.2020 22:14 10,4 C 8,9 C 8,3 C 91 % 1007,8 hPa 0,0 l/m 0 min 0 min 0 W/m 0,0 km/h (0 Bft) 97,87 %
27.09.2020 22:16 10,4 C 8,9 C 8,3 C 91 % 1007,8 hPa 0,0 l/m 0 min 0 min 0 W/m 0,0 km/h (0 Bft) 100,00 %
27.09.2020 22:18 10,4 C 8,9 C 8,3 C 91 % 1007,8 hPa 0,0 l/m 0 min 0 min 0 W/m 0,0 km/h (0 Bft) 95,74 %
27.09.2020 22:20 10,4 C 8,3 C 8,3 C 91 % 1007,9 hPa 0,0 l/m 0 min 0 min 0 W/m 0,0 km/h (0 Bft) 100,00 %
27.09.2020 22:22 10,4 C 8,3 C 8,3 C 91 % 1007,9 hPa 0,0 l/m 0 min 0 min 0 W/m 0,0 km/h (0 Bft) 100,00 %
27.09.2020 22:24 10,3 C 8,3 C 8,3 C 91 % 1007,8 hPa 0,0 l/m 0 min 0 min 0 W/m 0,0 km/h (0 Bft) 100,00 %
27.09.2020 22:26 10,3 C 8,9 C 8,3 C 91 % 1007,8 hPa 0,0 l/m 0 min 0 min 0 W/m 0,0 km/h (0 Bft) 97,87 %
27.09.2020 22:28 10,3 C 8,9 C 8,3 C 91 % 1007,8 hPa 0,0 l/m 0 min 0 min 0 W/m 0,0 km/h (0 Bft) 97,87 %
27.09.2020 22:30 10,3 C 8,9 C 8,3 C 91 % 1007,8 hPa 0,0 l/m 0 min 0 min 0 W/m 0,0 km/h (0 Bft) 100,00 %
27.09.2020 22:32 10,3 C 8,9 C 8,3 C 91 % 1007,8 hPa 0,0 l/m 0 min 0 min 0 W/m 0,0 km/h (0 Bft) 95,65 %
27.09.2020 22:34 10,3 C 8,9 C 8,3 C 91 % 1007,8 hPa 0,0 l/m 0 min 0 min 0 W/m 0,0 km/h (0 Bft) 95,74 %
27.09.2020 22:36 10,2 C 8,9 C 8,3 C 91 % 1007,9 hPa 0,0 l/m 0 min 0 min 0 W/m 0,0 km/h (0 Bft) 95,74 %
27.09.2020 22:38 10,2 C 8,9 C 8,3 C 91 % 1007,9 hPa 0,0 l/m 0 min 0 min 0 W/m 0,0 km/h (0 Bft) 95,74 %
27.09.2020 22:40 10,2 C 8,3 C 8,3 C 91 % 1008,0 hPa 0,0 l/m 0 min 0 min 0 W/m 0,0 km/h (0 Bft) 97,87 %
27.09.2020 22:42 10,2 C 8,3 C 8,3 C 91 % 1008,0 hPa 0,0 l/m 0 min 0 min 0 W/m 0,0 km/h (0 Bft) 93,62 %
27.09.2020 22:44 10,2 C 8,3 C 8,3 C 91 % 1008,0 hPa 0,0 l/m 0 min 0 min 0 W/m 0,0 km/h (0 Bft) 95,65 %
27.09.2020 22:46 10,2 C 8,3 C 8,3 C 92 % 1008,1 hPa 0,0 l/m 0 min 0 min 0 W/m 0,0 km/h (0 Bft) 95,74 %
27.09.2020 22:48 10,2 C 8,3 C 8,3 C 92 % 1008,0 hPa 0,0 l/m 0 min 0 min 0 W/m 0,0 km/h (0 Bft) 95,74 %
27.09.2020 22:50 10,1 C 8,3 C 8,3 C 92 % 1008,0 hPa 0,0 l/m 0 min 0 min 0 W/m 0,0 km/h (0 Bft) 96,23 %
27.09.2020 22:52 10,1 C 8,3 C 8,3 C 92 % 1008,0 hPa 0,0 l/m 0 min 0 min 0 W/m 0,0 km/h (0 Bft) 97,87 %
27.09.2020 22:54 10,1 C 8,3 C 8,3 C 92 % 1008,0 hPa 0,0 l/m 0 min 0 min 0 W/m 0,0 km/h (0 Bft) 97,87 %
27.09.2020 22:56 10,1 C 8,9 C 8,3 C 92 % 1007,9 hPa 0,0 l/m 0 min 0 min 0 W/m 0,0 km/h (0 Bft) 96,15 %
27.09.2020 22:58 10,1 C 8,9 C 8,3 C 92 % 1008,0 hPa 0,0 l/m 0 min 0 min 0 W/m 0,0 km/h (0 Bft) 97,87 %
27.09.2020 23:00 10,1 C 8,9 C 8,3 C 92 % 1008,1 hPa 0,0 l/m 0 min 0 min 0 W/m 0,0 km/h (0 Bft) 95,74 %
27.09.2020 23:02 10,0 C 8,9 C 8,3 C 92 % 1008,2 hPa 0,0 l/m 0 min 0 min 0 W/m 0,0 km/h (0 Bft) 97,83 %
27.09.2020 23:04 10,0 C 8,9 C 8,3 C 92 % 1008,2 hPa 0,0 l/m 0 min 0 min 0 W/m 0,0 km/h (0 Bft) 97,87 %
27.09.2020 23:06 10,0 C 8,9 C 8,3 C 92 % 1008,1 hPa 0,0 l/m 0 min 0 min 0 W/m 0,0 km/h (0 Bft) 97,87 %
27.09.2020 23:08 10,0 C 8,9 C 8,3 C 92 % 1008,1 hPa 0,0 l/m 0 min 0 min 0 W/m 0,0 km/h (0 Bft) 100,00 %
27.09.2020 23:10 9,9 C 8,9 C 8,3 C 92 % 1008,1 hPa 0,0 l/m 0 min 0 min 0 W/m 0,0 km/h (0 Bft) 97,87 %
27.09.2020 23:12 9,9 C 8,9 C 8,9 C 92 % 1008,1 hPa 0,0 l/m 0 min 0 min 0 W/m 0,0 km/h (0 Bft) 100,00 %
27.09.2020 23:14 9,9 C 9,4 C 8,9 C 92 % 1008,0 hPa 0,0 l/m 0 min 0 min 0 W/m 0,0 km/h (0 Bft) 100,00 %
27.09.2020 23:16 9,9 C 9,4 C 8,9 C 92 % 1008,1 hPa 0,0 l/m 0 min 0 min 0 W/m 0,0 km/h (0 Bft) 100,00 %
27.09.2020 23:18 9,9 C 8,9 C 8,9 C 92 % 1008,1 hPa 0,0 l/m 0 min 0 min 0 W/m 0,0 km/h (0 Bft) 100,00 %
27.09.2020 23:20 9,9 C 8,9 C 8,9 C 92 % 1008,2 hPa 0,0 l/m 0 min 0 min 0 W/m 0,0 km/h (0 Bft) 100,00 %
27.09.2020 23:22 9,9 C 8,9 C 8,9 C 92 % 1008,1 hPa 0,0 l/m 0 min 0 min 0 W/m 0,0 km/h (0 Bft) 100,00 %
27.09.2020 23:24 9,9 C 8,9 C 8,9 C 92 % 1008,2 hPa 0,0 l/m 0 min 0 min 0 W/m 0,0 km/h (0 Bft) 100,00 %
27.09.2020 23:26 9,9 C 8,9 C 8,9 C 93 % 1008,2 hPa 0,0 l/m 0 min 0 min 0 W/m 0,0 km/h (0 Bft) 97,87 %
27.09.2020 23:28 9,9 C 8,9 C 8,9 C 93 % 1008,2 hPa 0,0 l/m 0 min 0 min 0 W/m 0,0 km/h (0 Bft) 95,74 %
27.09.2020 23:30 9,9 C 8,9 C 8,9 C 93 % 1008,2 hPa 0,0 l/m 0 min 0 min 0 W/m 0,0 km/h (0 Bft) 97,87 %
27.09.2020 23:32 9,9 C 8,9 C 8,9 C 93 % 1008,2 hPa 0,0 l/m 0 min 0 min 0 W/m 0,0 km/h (0 Bft) 97,87 %
27.09.2020 23:34 9,9 C 8,9 C 8,9 C 93 % 1008,2 hPa 0,0 l/m 0 min 0 min 0 W/m 0,0 km/h (0 Bft) 100,00 %
27.09.2020 23:36 9,9 C 8,9 C 8,9 C 93 % 1008,2 hPa 0,0 l/m 0 min 0 min 0 W/m 0,0 km/h (0 Bft) 97,83 %
27.09.2020 23:38 9,9 C 8,9 C 8,9 C 93 % 1008,2 hPa 0,0 l/m 0 min 0 min 0 W/m 0,0 km/h (0 Bft) 95,74 %
27.09.2020 23:40 9,9 C 9,4 C 8,9 C 93 % 1008,2 hPa 0,0 l/m 0 min 0 min 0 W/m 0,0 km/h (0 Bft) 97,87 %
27.09.2020 23:42 9,9 C 9,4 C 8,9 C 93 % 1008,2 hPa 0,0 l/m 0 min 0 min 0 W/m 0,0 km/h (0 Bft) 97,87 %
27.09.2020 23:44 9,9 C 9,4 C 8,9 C 93 % 1008,2 hPa 0,0 l/m 0 min 0 min 0 W/m 0,0 km/h (0 Bft) 97,87 %
27.09.2020 23:46 10,0 C 10,0 C 8,9 C 93 % 1008,2 hPa 0,0 l/m 0 min 0 min 0 W/m 0,0 km/h (0 Bft) 97,87 %
27.09.2020 23:48 10,0 C 10,0 C 9,4 C 93 % 1008,3 hPa 0,0 l/m 0 min 0 min 0 W/m 0,0 km/h (0 Bft) 97,83 %
27.09.2020 23:50 10,1 C 10,0 C 9,4 C 94 % 1008,3 hPa 0,0 l/m 0 min 0 min 0 W/m 0,0 km/h (0 Bft) 95,74 %
27.09.2020 23:52 10,1 C 10,0 C 9,4 C 94 % 1008,3 hPa 0,0 l/m 0 min 0 min 0 W/m 0,0 km/h (0 Bft) 95,74 %
27.09.2020 23:54 10,1 C 10,0 C 9,4 C 94 % 1008,3 hPa 0,0 l/m 0 min 0 min 0 W/m 0,0 km/h (0 Bft) 97,87 %
27.09.2020 23:56 10,1 C 10,0 C 9,4 C 94 % 1008,3 hPa 0,0 l/m 0 min 0 min 0 W/m 0,0 km/h (0 Bft) 97,87 %
27.09.2020 23:58 10,2 C 10,0 C 9,4 C 94 % 1008,3 hPa 0,0 l/m 0 min 0 min 0 W/m 0,0 km/h (0 Bft) 95,74 %
_ Min-Zeit 09:06 22:00 21:42 17:20 03:54 - - - - 00:00 12:02
Minimum _ 9,9 C 8,3 C 8,3 C 80 % 992,9 hPa - - - - 0,0 km/h (0 Bft) 37,84 %
_ Max-Zeit 17:10 16:32 16:56 03:08 23:48 00:08 12:08 00:08 16:54 00:20 00:00
Maximum _ 15,7 C 18,9 C 16,7 C 100 % 1008,3 hPa 0,6 l/m 4 min 4 min 428 W/m 19,3 km/h
W (3 Bft)
100,00 %
Durchschnitt _ 12,0 C 11,7 C 10,6 C 94 % 1001,0 hPa #7,6 l/m #2:40 h #2:04 h 146 W/m 1,9 km/h (1 Bft) 97,37 %
© 2020 W. Hausmann